Wetterdaten: Sonntag, 16.02.2014
Datum Zeit Temp. Aussen +5cm Feuchte Auss Luftdruck Regen Sonnenschein Regendauer UV Solar Windben
16.02.2014 00:00 8,4 C 6,7 C 74 % 1001,8 hPa 0,0 l/m 0 min 0 min 0,0 UV-I 0 W/m 28,3 km/h (4 Bft)
16.02.2014 00:02 8,5 C 6,7 C 74 % 1001,8 hPa 0,0 l/m 0 min 0 min 0,0 UV-I 0 W/m 30,9 km/h (5 Bft)
16.02.2014 00:06 8,4 C 6,7 C 74 % 1001,8 hPa 0,0 l/m 0 min 0 min 0,0 UV-I 0 W/m 25,7 km/h (4 Bft)
16.02.2014 00:08 8,4 C 6,7 C 75 % 1001,9 hPa 0,0 l/m 0 min 0 min 0,0 UV-I 0 W/m 56,6 km/h (7 Bft)
16.02.2014 00:10 8,4 C 6,7 C 75 % 1002,0 hPa 0,0 l/m 0 min 2 min 0,0 UV-I 0 W/m 18,0 km/h (3 Bft)
16.02.2014 00:12 8,4 C 6,7 C 75 % 1001,9 hPa 0,0 l/m 0 min 0 min 0,0 UV-I 0 W/m 18,0 km/h (3 Bft)
16.02.2014 00:14 8,4 C 6,7 C 75 % 1001,9 hPa 0,0 l/m 0 min 2 min 0,0 UV-I 0 W/m 12,9 km/h (3 Bft)
16.02.2014 00:16 8,4 C 6,1 C 76 % 1001,9 hPa 0,0 l/m 0 min 2 min 0,0 UV-I 0 W/m 28,3 km/h (4 Bft)
16.02.2014 00:18 8,4 C 6,1 C 76 % 1002,0 hPa 0,0 l/m 0 min 2 min 0,0 UV-I 0 W/m 18,0 km/h (3 Bft)
16.02.2014 00:20 8,3 C 6,1 C 76 % 1002,0 hPa 0,0 l/m 0 min 2 min 0,0 UV-I 0 W/m 23,2 km/h (4 Bft)
16.02.2014 00:22 8,3 C 6,1 C 76 % 1002,1 hPa 0,0 l/m 0 min 2 min 0,0 UV-I 0 W/m 23,2 km/h (4 Bft)
16.02.2014 00:24 8,3 C 6,1 C 76 % 1002,1 hPa 0,0 l/m 0 min 2 min 0,0 UV-I 0 W/m 33,5 km/h (5 Bft)
16.02.2014 00:26 8,3 C 6,1 C 76 % 1002,1 hPa 0,0 l/m 0 min 2 min 0,0 UV-I 0 W/m 33,5 km/h (5 Bft)
16.02.2014 00:28 8,3 C 6,1 C 77 % 1002,2 hPa 0,0 l/m 0 min 2 min 0,0 UV-I 0 W/m 33,5 km/h (5 Bft)
16.02.2014 00:30 8,3 C 6,1 C 77 % 1002,3 hPa 0,0 l/m 0 min 2 min 0,0 UV-I 0 W/m 28,3 km/h (4 Bft)
16.02.2014 00:32 8,3 C 5,6 C 77 % 1002,2 hPa 0,0 l/m 0 min 2 min 0,0 UV-I 0 W/m 18,0 km/h (3 Bft)
16.02.2014 00:34 8,2 C 5,0 C 79 % 1002,2 hPa 0,0 l/m 0 min 2 min 0,0 UV-I 0 W/m 20,6 km/h (4 Bft)
16.02.2014 00:36 8,1 C 5,0 C 80 % 1002,2 hPa 0,2 l/m 0 min 2 min 0,0 UV-I 0 W/m 36,0 km/h (5 Bft)
16.02.2014 00:38 8,1 C 5,0 C 80 % 1002,3 hPa 0,0 l/m 0 min 2 min 0,0 UV-I 0 W/m 15,4 km/h (3 Bft)
16.02.2014 00:40 8,0 C 5,0 C 81 % 1002,3 hPa 0,0 l/m 0 min 2 min 0,0 UV-I 0 W/m 15,4 km/h (3 Bft)
16.02.2014 00:42 7,9 C 5,0 C 81 % 1002,4 hPa 0,0 l/m 0 min 2 min 0,0 UV-I 0 W/m 20,6 km/h (4 Bft)
16.02.2014 00:44 7,8 C 5,0 C 82 % 1002,5 hPa 0,0 l/m 0 min 2 min 0,0 UV-I 0 W/m 15,4 km/h (3 Bft)
16.02.2014 00:46 7,7 C 5,0 C 82 % 1002,7 hPa 0,0 l/m 0 min 2 min 0,0 UV-I 0 W/m 15,4 km/h (3 Bft)
16.02.2014 00:48 7,6 C 5,0 C 83 % 1002,5 hPa 0,0 l/m 0 min 2 min 0,0 UV-I 0 W/m 30,9 km/h (5 Bft)
16.02.2014 00:50 7,6 C 5,0 C 83 % 1002,6 hPa 0,2 l/m 0 min 2 min 0,0 UV-I 0 W/m 38,6 km/h (5 Bft)
16.02.2014 00:52 7,5 C 5,0 C 84 % 1002,5 hPa 0,0 l/m 0 min 2 min 0,0 UV-I 0 W/m 23,2 km/h (4 Bft)
16.02.2014 00:54 7,5 C 5,0 C 84 % 1002,6 hPa 0,0 l/m 0 min 2 min 0,0 UV-I 0 W/m 23,2 km/h (4 Bft)
16.02.2014 00:56 7,4 C 5,0 C 84 % 1002,6 hPa 0,0 l/m 0 min 2 min 0,0 UV-I 0 W/m 23,2 km/h (4 Bft)
16.02.2014 00:58 7,4 C 5,0 C 85 % 1002,6 hPa 0,0 l/m 0 min 2 min 0,0 UV-I 0 W/m 25,7 km/h (4 Bft)
16.02.2014 01:00 7,3 C 5,0 C 85 % 1002,6 hPa 0,0 l/m 0 min 2 min 0,0 UV-I 0 W/m 18,0 km/h (3 Bft)
16.02.2014 01:02 7,3 C 5,0 C 85 % 1002,5 hPa 0,0 l/m 0 min 0 min 0,0 UV-I 0 W/m 20,6 km/h (4 Bft)
16.02.2014 01:04 7,3 C 5,0 C 85 % 1002,5 hPa 0,0 l/m 0 min 0 min 0,0 UV-I 0 W/m 25,7 km/h (4 Bft)
16.02.2014 01:06 7,4 C 5,0 C 84 % 1002,5 hPa 0,0 l/m 0 min 0 min 0,0 UV-I 0 W/m 23,2 km/h (4 Bft)
16.02.2014 01:08 7,4 C 5,0 C 84 % 1002,5 hPa 0,0 l/m 0 min 0 min 0,0 UV-I 0 W/m 18,0 km/h (3 Bft)
16.02.2014 01:10 7,4 C 5,0 C 84 % 1002,6 hPa 0,0 l/m 0 min 0 min 0,0 UV-I 0 W/m 25,7 km/h (4 Bft)
16.02.2014 01:12 7,4 C 5,0 C 84 % 1002,6 hPa 0,0 l/m 0 min 0 min 0,0 UV-I 0 W/m 28,3 km/h (4 Bft)
16.02.2014 01:14 7,4 C 5,0 C 84 % 1002,6 hPa 0,0 l/m 0 min 2 min 0,0 UV-I 0 W/m 18,0 km/h (3 Bft)
16.02.2014 01:16 7,5 C 5,0 C 84 % 1002,7 hPa 0,0 l/m 0 min 2 min 0,0 UV-I 0 W/m 28,3 km/h (4 Bft)
16.02.2014 01:18 7,5 C 5,0 C 83 % 1002,6 hPa 0,0 l/m 0 min 0 min 0,0 UV-I 0 W/m 28,3 km/h (4 Bft)
16.02.2014 01:20 7,6 C 5,0 C 83 % 1002,6 hPa 0,0 l/m 0 min 0 min 0,0 UV-I 0 W/m 33,5 km/h (5 Bft)
16.02.2014 01:22 7,6 C 5,0 C 83 % 1002,7 hPa 0,0 l/m 0 min 0 min 0,0 UV-I 0 W/m 25,7 km/h (4 Bft)
16.02.2014 01:24 7,6 C 5,0 C 83 % 1002,7 hPa 0,0 l/m 0 min 0 min 0,0 UV-I 0 W/m 23,2 km/h (4 Bft)
16.02.2014 01:26 7,6 C 5,0 C 83 % 1002,8 hPa 0,0 l/m 0 min 2 min 0,0 UV-I 0 W/m 23,2 km/h (4 Bft)
16.02.2014 01:28 7,6 C 5,0 C 83 % 1002,7 hPa 0,0 l/m 0 min 0 min 0,0 UV-I 0 W/m 20,6 km/h (4 Bft)
16.02.2014 01:30 7,6 C 5,0 C 83 % 1002,8 hPa 0,0 l/m 0 min 2 min 0,0 UV-I 0 W/m 30,9 km/h (5 Bft)
16.02.2014 01:32 7,5 C 5,0 C 83 % 1002,7 hPa 0,0 l/m 0 min 0 min 0,0 UV-I 0 W/m 20,6 km/h (4 Bft)
16.02.2014 01:34 7,5 C 5,0 C 84 % 1002,7 hPa 0,0 l/m 0 min 0 min 0,0 UV-I 0 W/m 20,6 km/h (4 Bft)
16.02.2014 01:36 7,4 C 5,0 C 84 % 1002,5 hPa 0,0 l/m 0 min 0 min 0,0 UV-I 0 W/m 18,0 km/h (3 Bft)
16.02.2014 01:38 7,4 C 5,0 C 84 % 1002,6 hPa 0,0 l/m 0 min 0 min 0,0 UV-I 0 W/m 20,6 km/h (4 Bft)
16.02.2014 01:40 7,4 C 5,0 C 84 % 1002,5 hPa 0,0 l/m 0 min 0 min 0,0 UV-I 0 W/m 23,2 km/h (4 Bft)
16.02.2014 01:42 7,4 C 5,0 C 84 % 1002,6 hPa 0,0 l/m 0 min 0 min 0,0 UV-I 0 W/m 15,4 km/h (3 Bft)
16.02.2014 01:44 7,3 C 5,0 C 84 % 1002,6 hPa 0,0 l/m 0 min 0 min 0,0 UV-I 0 W/m 20,6 km/h (4 Bft)
16.02.2014 01:46 7,3 C 5,0 C 84 % 1002,6 hPa 0,0 l/m 0 min 0 min 0,0 UV-I 0 W/m 20,6 km/h (4 Bft)
16.02.2014 01:48 7,3 C 5,0 C 85 % 1002,6 hPa 0,0 l/m 0 min 0 min 0,0 UV-I 0 W/m 20,6 km/h (4 Bft)
16.02.2014 01:50 7,3 C 5,0 C 85 % 1002,6 hPa 0,0 l/m 0 min 0 min 0,0 UV-I 0 W/m 43,8 km/h (6 Bft)
16.02.2014 01:52 7,2 C 5,0 C 84 % 1002,5 hPa 0,0 l/m 0 min 0 min 0,0 UV-I 0 W/m 18,0 km/h (3 Bft)
16.02.2014 01:54 7,2 C 5,0 C 85 % 1002,6 hPa 0,0 l/m 0 min 0 min 0,0 UV-I 0 W/m 28,3 km/h (4 Bft)
16.02.2014 01:56 7,2 C 5,0 C 84 % 1002,6 hPa 0,0 l/m 0 min 0 min 0,0 UV-I 0 W/m 30,9 km/h (5 Bft)
16.02.2014 01:58 7,2 C 5,0 C 84 % 1002,7 hPa 0,0 l/m 0 min 0 min 0,0 UV-I 0 W/m 23,2 km/h (4 Bft)
16.02.2014 02:00 7,2 C 5,0 C 84 % 1002,6 hPa 0,0 l/m 0 min 0 min 0,0 UV-I 0 W/m 33,5 km/h (5 Bft)
16.02.2014 02:02 7,3 C 5,6 C 84 % 1002,6 hPa 0,0 l/m 0 min 0 min 0,0 UV-I 0 W/m 43,8 km/h (6 Bft)
16.02.2014 02:04 7,3 C 5,6 C 84 % 1002,6 hPa 0,0 l/m 0 min 0 min 0,0 UV-I 0 W/m 36,0 km/h (5 Bft)
16.02.2014 02:06 7,3 C 5,6 C 84 % 1002,7 hPa 0,0 l/m 0 min 0 min 0,0 UV-I 0 W/m 18,0 km/h (3 Bft)
16.02.2014 02:08 7,3 C 5,6 C 84 % 1002,7 hPa 0,0 l/m 0 min 0 min 0,0 UV-I 0 W/m 33,5 km/h (5 Bft)
16.02.2014 02:10 7,3 C 5,6 C 84 % 1002,6 hPa 0,0 l/m 0 min 0 min 0,0 UV-I 0 W/m 23,2 km/h (4 Bft)
16.02.2014 02:12 7,3 C 5,0 C 84 % 1002,6 hPa 0,0 l/m 0 min 0 min 0,0 UV-I 0 W/m 23,2 km/h (4 Bft)
16.02.2014 02:14 7,3 C 5,0 C 83 % 1002,9 hPa 0,0 l/m 0 min 0 min 0,0 UV-I 0 W/m 18,0 km/h (3 Bft)
16.02.2014 02:16 7,3 C 5,0 C 83 % 1002,8 hPa 0,0 l/m 0 min 0 min 0,0 UV-I 0 W/m 7,7 km/h (2 Bft)
16.02.2014 02:18 7,3 C 5,0 C 83 % 1002,9 hPa 0,0 l/m 0 min 0 min 0,0 UV-I 0 W/m 23,2 km/h (4 Bft)
16.02.2014 02:20 7,3 C 5,0 C 83 % 1002,9 hPa 0,0 l/m 0 min 0 min 0,0 UV-I 0 W/m 18,0 km/h (3 Bft)
16.02.2014 02:22 7,3 C 5,6 C 84 % 1003,0 hPa 0,0 l/m 0 min 0 min 0,0 UV-I 0 W/m 15,4 km/h (3 Bft)
16.02.2014 02:24 7,3 C 5,6 C 84 % 1002,9 hPa 0,0 l/m 0 min 0 min 0,0 UV-I 0 W/m 20,6 km/h (4 Bft)
16.02.2014 02:26 7,3 C 5,6 C 84 % 1002,8 hPa 0,0 l/m 0 min 0 min 0,0 UV-I 0 W/m 20,6 km/h (4 Bft)
16.02.2014 02:28 7,3 C 5,6 C 84 % 1002,9 hPa 0,0 l/m 0 min 0 min 0,0 UV-I 0 W/m 18,0 km/h (3 Bft)
16.02.2014 02:30 7,3 C 5,6 C 84 % 1003,0 hPa 0,0 l/m 0 min 0 min 0,0 UV-I 0 W/m 12,9 km/h (3 Bft)
16.02.2014 02:32 7,3 C 5,6 C 84 % 1003,1 hPa 0,0 l/m 0 min 0 min 0,0 UV-I 0 W/m 12,9 km/h (3 Bft)
16.02.2014 02:34 7,3 C 5,6 C 84 % 1003,0 hPa 0,0 l/m 0 min 0 min 0,0 UV-I 0 W/m 15,4 km/h (3 Bft)
16.02.2014 02:36 7,3 C 5,6 C 84 % 1003,1 hPa 0,0 l/m 0 min 0 min 0,0 UV-I 0 W/m 18,0 km/h (3 Bft)
16.02.2014 02:38 7,3 C 5,6 C 84 % 1003,1 hPa 0,0 l/m 0 min 0 min 0,0 UV-I 0 W/m 30,9 km/h (5 Bft)
16.02.2014 02:40 7,3 C 5,6 C 84 % 1003,2 hPa 0,0 l/m 0 min 0 min 0,0 UV-I 0 W/m 23,2 km/h (4 Bft)
16.02.2014 02:42 7,3 C 5,6 C 84 % 1003,2 hPa 0,0 l/m 0 min 0 min 0,0 UV-I 0 W/m 18,0 km/h (3 Bft)
16.02.2014 02:44 7,3 C 5,6 C 84 % 1003,3 hPa 0,0 l/m 0 min 0 min 0,0 UV-I 0 W/m 10,3 km/h (2 Bft)
16.02.2014 02:46 7,3 C 6,1 C 84 % 1003,2 hPa 0,0 l/m 0 min 0 min 0,0 UV-I 0 W/m 7,7 km/h (2 Bft)
16.02.2014 02:48 7,4 C 6,1 C 84 % 1003,3 hPa 0,0 l/m 0 min 0 min 0,0 UV-I 0 W/m 36,0 km/h (5 Bft)
16.02.2014 02:50 7,4 C 6,1 C 84 % 1003,2 hPa 0,0 l/m 0 min 0 min 0,0 UV-I 0 W/m 10,3 km/h (2 Bft)
16.02.2014 02:52 7,4 C 6,1 C 84 % 1003,1 hPa 0,0 l/m 0 min 0 min 0,0 UV-I 0 W/m 20,6 km/h (4 Bft)
16.02.2014 02:54 7,4 C 6,1 C 84 % 1003,3 hPa 0,0 l/m 0 min 0 min 0,0 UV-I 0 W/m 20,6 km/h (4 Bft)
16.02.2014 02:56 7,4 C 6,1 C 84 % 1003,3 hPa 0,0 l/m 0 min 0 min 0,0 UV-I 0 W/m 15,4 km/h (3 Bft)
16.02.2014 02:58 7,4 C 6,1 C 83 % 1003,3 hPa 0,0 l/m 0 min 0 min 0,0 UV-I 0 W/m 20,6 km/h (4 Bft)
16.02.2014 03:00 7,4 C 6,1 C 83 % 1003,3 hPa 0,0 l/m 0 min 0 min 0,0 UV-I 0 W/m 20,6 km/h (4 Bft)
16.02.2014 03:02 7,4 C 6,1 C 83 % 1003,4 hPa 0,0 l/m 0 min 0 min 0,0 UV-I 0 W/m 20,6 km/h (4 Bft)
16.02.2014 03:04 7,4 C 6,1 C 83 % 1003,4 hPa 0,0 l/m 0 min 0 min 0,0 UV-I 0 W/m 23,2 km/h (4 Bft)
16.02.2014 03:06 7,4 C 6,1 C 83 % 1003,3 hPa 0,0 l/m 0 min 0 min 0,0 UV-I 0 W/m 15,4 km/h (3 Bft)
16.02.2014 03:08 7,4 C 6,1 C 83 % 1003,3 hPa 0,0 l/m 0 min 0 min 0,0 UV-I 0 W/m 43,8 km/h (6 Bft)
16.02.2014 03:10 7,4 C 5,6 C 83 % 1003,3 hPa 0,0 l/m 0 min 0 min 0,0 UV-I 0 W/m 20,6 km/h (4 Bft)
16.02.2014 03:12 7,3 C 5,6 C 83 % 1003,4 hPa 0,0 l/m 0 min 0 min 0,0 UV-I 0 W/m 28,3 km/h (4 Bft)
16.02.2014 03:14 7,3 C 5,6 C 83 % 1003,3 hPa 0,0 l/m 0 min 0 min 0,0 UV-I 0 W/m 12,9 km/h (3 Bft)
16.02.2014 03:16 7,3 C 5,6 C 83 % 1003,4 hPa 0,0 l/m 0 min 0 min 0,0 UV-I 0 W/m 15,4 km/h (3 Bft)
16.02.2014 03:18 7,3 C 5,6 C 83 % 1003,5 hPa 0,0 l/m 0 min 2 min 0,0 UV-I 0 W/m 18,0 km/h (3 Bft)
16.02.2014 03:20 7,3 C 5,0 C 83 % 1003,5 hPa 0,0 l/m 0 min 2 min 0,0 UV-I 0 W/m 28,3 km/h (4 Bft)
16.02.2014 03:22 7,3 C 5,0 C 84 % 1003,6 hPa 0,2 l/m 0 min 2 min 0,0 UV-I 0 W/m 20,6 km/h (4 Bft)
16.02.2014 03:24 7,2 C 4,4 C 84 % 1003,6 hPa 0,0 l/m 0 min 2 min 0,0 UV-I 0 W/m 20,6 km/h (4 Bft)
16.02.2014 03:26 7,2 C 4,4 C 85 % 1003,6 hPa 0,0 l/m 0 min 2 min 0,0 UV-I 0 W/m 20,6 km/h (4 Bft)
16.02.2014 03:28 7,1 C 4,4 C 85 % 1003,5 hPa 0,0 l/m 0 min 2 min 0,0 UV-I 0 W/m 28,3 km/h (4 Bft)
16.02.2014 03:30 7,1 C 4,4 C 85 % 1003,6 hPa 0,0 l/m 0 min 0 min 0,0 UV-I 0 W/m 28,3 km/h (4 Bft)
16.02.2014 03:32 7,0 C 4,4 C 86 % 1003,6 hPa 0,0 l/m 0 min 0 min 0,0 UV-I 0 W/m 25,7 km/h (4 Bft)
16.02.2014 03:34 6,9 C 4,4 C 86 % 1003,7 hPa 0,0 l/m 0 min 0 min 0,0 UV-I 0 W/m 20,6 km/h (4 Bft)
16.02.2014 03:36 6,9 C 4,4 C 86 % 1003,7 hPa 0,0 l/m 0 min 0 min 0,0 UV-I 0 W/m 12,9 km/h (3 Bft)
16.02.2014 03:38 6,8 C 4,4 C 87 % 1003,7 hPa 0,0 l/m 0 min 0 min 0,0 UV-I 0 W/m 18,0 km/h (3 Bft)
16.02.2014 03:40 6,8 C 4,4 C 87 % 1003,8 hPa 0,0 l/m 0 min 0 min 0,0 UV-I 0 W/m 20,6 km/h (4 Bft)
16.02.2014 03:42 6,8 C 4,4 C 87 % 1003,8 hPa 0,0 l/m 0 min 0 min 0,0 UV-I 0 W/m 12,9 km/h (3 Bft)
16.02.2014 03:44 6,8 C 4,4 C 87 % 1003,8 hPa 0,0 l/m 0 min 0 min 0,0 UV-I 0 W/m 12,9 km/h (3 Bft)
16.02.2014 03:46 6,7 C 4,4 C 87 % 1003,8 hPa 0,0 l/m 0 min 0 min 0,0 UV-I 0 W/m 12,9 km/h (3 Bft)
16.02.2014 03:48 6,7 C 4,4 C 87 % 1003,7 hPa 0,0 l/m 0 min 0 min 0,0 UV-I 0 W/m 15,4 km/h (3 Bft)
16.02.2014 03:50 6,7 C 4,4 C 88 % 1003,7 hPa 0,0 l/m 0 min 0 min 0,0 UV-I 0 W/m 18,0 km/h (3 Bft)
16.02.2014 03:52 6,7 C 4,4 C 88 % 1003,8 hPa 0,0 l/m 0 min 2 min 0,0 UV-I 0 W/m 18,0 km/h (3 Bft)
16.02.2014 03:54 6,7 C 4,4 C 88 % 1003,8 hPa 0,0 l/m 0 min 0 min 0,0 UV-I 0 W/m 5,1 km/h (1 Bft)
16.02.2014 03:56 6,6 C 4,4 C 88 % 1003,8 hPa 0,0 l/m 0 min 0 min 0,0 UV-I 0 W/m 38,6 km/h (5 Bft)
16.02.2014 03:58 6,6 C 4,4 C 88 % 1003,8 hPa 0,0 l/m 0 min 2 min 0,0 UV-I 0 W/m 20,6 km/h (4 Bft)
16.02.2014 04:00 6,6 C 4,4 C 88 % 1003,8 hPa 0,0 l/m 0 min 2 min 0,0 UV-I 0 W/m 10,3 km/h (2 Bft)
16.02.2014 04:05 6,6 C 4,4 C 88 % 1003,7 hPa 0,0 l/m 0 min 0 min 0,0 UV-I 0 W/m 15,4 km/h (3 Bft)
16.02.2014 04:06 6,6 C 4,4 C 88 % 1003,8 hPa 0,0 l/m 0 min 0 min 0,0 UV-I 0 W/m 15,4 km/h (3 Bft)
16.02.2014 04:08 6,6 C 4,4 C 88 % 1003,8 hPa 0,0 l/m 0 min 0 min 0,0 UV-I 0 W/m 20,6 km/h (4 Bft)
16.02.2014 04:10 6,6 C 4,4 C 89 % 1003,8 hPa 0,0 l/m 0 min 2 min 0,0 UV-I 0 W/m 10,3 km/h (2 Bft)
16.02.2014 04:12 6,6 C 4,4 C 89 % 1003,8 hPa 0,0 l/m 0 min 2 min 0,0 UV-I 0 W/m 18,0 km/h (3 Bft)
16.02.2014 04:14 6,6 C 4,4 C 89 % 1003,8 hPa 0,0 l/m 0 min 2 min 0,0 UV-I 0 W/m 12,9 km/h (3 Bft)
16.02.2014 04:16 6,6 C 4,4 C 89 % 1003,8 hPa 0,0 l/m 0 min 2 min 0,0 UV-I 0 W/m 7,7 km/h (2 Bft)
16.02.2014 04:18 6,5 C 4,4 C 89 % 1003,9 hPa 0,0 l/m 0 min 2 min 0,0 UV-I 0 W/m 20,6 km/h (4 Bft)
16.02.2014 04:20 6,5 C 4,4 C 89 % 1003,9 hPa 0,0 l/m 0 min 2 min 0,0 UV-I 0 W/m 7,7 km/h (2 Bft)
16.02.2014 04:22 6,5 C 4,4 C 89 % 1003,9 hPa 0,0 l/m 0 min 2 min 0,0 UV-I 0 W/m 15,4 km/h (3 Bft)
16.02.2014 04:24 6,4 C 4,4 C 90 % 1003,9 hPa 0,0 l/m 0 min 2 min 0,0 UV-I 0 W/m 10,3 km/h (2 Bft)
16.02.2014 04:26 6,4 C 4,4 C 90 % 1003,9 hPa 0,0 l/m 0 min 2 min 0,0 UV-I 0 W/m 18,0 km/h (3 Bft)
16.02.2014 04:28 6,4 C 4,4 C 90 % 1003,9 hPa 0,0 l/m 0 min 0 min 0,0 UV-I 0 W/m 10,3 km/h (2 Bft)
16.02.2014 04:30 6,4 C 4,4 C 90 % 1003,9 hPa 0,0 l/m 0 min 0 min 0,0 UV-I 0 W/m 15,4 km/h (3 Bft)
16.02.2014 04:32 6,4 C 4,4 C 90 % 1003,9 hPa 0,0 l/m 0 min 0 min 0,0 UV-I 0 W/m 10,3 km/h (2 Bft)
16.02.2014 04:34 6,4 C 4,4 C 90 % 1003,9 hPa 0,0 l/m 0 min 0 min 0,0 UV-I 0 W/m 7,7 km/h (2 Bft)
16.02.2014 04:36 6,4 C 4,4 C 90 % 1003,9 hPa 0,0 l/m 0 min 2 min 0,0 UV-I 0 W/m 12,9 km/h (3 Bft)
16.02.2014 04:38 6,4 C 4,4 C 90 % 1003,9 hPa 0,0 l/m 0 min 0 min 0,0 UV-I 0 W/m 12,9 km/h (3 Bft)
16.02.2014 04:40 6,4 C 4,4 C 90 % 1004,0 hPa 0,0 l/m 0 min 0 min 0,0 UV-I 0 W/m 23,2 km/h (4 Bft)
16.02.2014 04:42 6,4 C 4,4 C 90 % 1004,0 hPa 0,0 l/m 0 min 0 min 0,0 UV-I 0 W/m 20,6 km/h (4 Bft)
16.02.2014 04:44 6,3 C 4,4 C 90 % 1004,0 hPa 0,0 l/m 0 min 0 min 0,0 UV-I 0 W/m 23,2 km/h (4 Bft)
16.02.2014 04:46 6,4 C 4,4 C 90 % 1004,1 hPa 0,0 l/m 0 min 0 min 0,0 UV-I 0 W/m 28,3 km/h (4 Bft)
16.02.2014 04:48 6,3 C 4,4 C 89 % 1004,1 hPa 0,0 l/m 0 min 0 min 0,0 UV-I 0 W/m 18,0 km/h (3 Bft)
16.02.2014 04:50 6,4 C 4,4 C 89 % 1004,0 hPa 0,0 l/m 0 min 2 min 0,0 UV-I 0 W/m 36,0 km/h (5 Bft)
16.02.2014 04:52 6,4 C 4,4 C 89 % 1004,1 hPa 0,0 l/m 0 min 0 min 0,0 UV-I 0 W/m 25,7 km/h (4 Bft)
16.02.2014 04:54 6,4 C 4,4 C 89 % 1004,1 hPa 0,0 l/m 0 min 2 min 0,0 UV-I 0 W/m 28,3 km/h (4 Bft)
16.02.2014 04:56 6,4 C 4,4 C 88 % 1004,1 hPa 0,0 l/m 0 min 0 min 0,0 UV-I 0 W/m 18,0 km/h (3 Bft)
16.02.2014 04:58 6,4 C 3,9 C 89 % 1004,1 hPa 0,0 l/m 0 min 0 min 0,0 UV-I 0 W/m 7,7 km/h (2 Bft)
16.02.2014 05:00 6,4 C 4,4 C 88 % 1004,1 hPa 0,0 l/m 0 min 0 min 0,0 UV-I 0 W/m 18,0 km/h (3 Bft)
16.02.2014 05:02 6,4 C 3,9 C 88 % 1004,2 hPa 0,0 l/m 0 min 0 min 0,0 UV-I 0 W/m 10,3 km/h (2 Bft)
16.02.2014 05:04 6,4 C 4,4 C 88 % 1004,2 hPa 0,0 l/m 0 min 0 min 0,0 UV-I 0 W/m 25,7 km/h (4 Bft)
16.02.2014 05:06 6,4 C 4,4 C 88 % 1004,2 hPa 0,0 l/m 0 min 2 min 0,0 UV-I 0 W/m 12,9 km/h (3 Bft)
16.02.2014 05:08 6,4 C 4,4 C 88 % 1004,3 hPa 0,0 l/m 0 min 0 min 0,0 UV-I 0 W/m 23,2 km/h (4 Bft)
16.02.2014 05:10 6,4 C 4,4 C 88 % 1004,3 hPa 0,0 l/m 0 min 0 min 0,0 UV-I 0 W/m 5,1 km/h (1 Bft)
16.02.2014 05:12 6,4 C 4,4 C 88 % 1004,3 hPa 0,0 l/m 0 min 0 min 0,0 UV-I 0 W/m 18,0 km/h (3 Bft)
16.02.2014 05:14 6,4 C 4,4 C 88 % 1004,3 hPa 0,0 l/m 0 min 2 min 0,0 UV-I 0 W/m 28,3 km/h (4 Bft)
16.02.2014 05:16 6,4 C 4,4 C 88 % 1004,3 hPa 0,0 l/m 0 min 0 min 0,0 UV-I 0 W/m 15,4 km/h (3 Bft)
16.02.2014 05:18 6,4 C 4,4 C 87 % 1004,4 hPa 0,0 l/m 0 min 0 min 0,0 UV-I 0 W/m 18,0 km/h (3 Bft)
16.02.2014 05:20 6,4 C 4,4 C 87 % 1004,4 hPa 0,0 l/m 0 min 0 min 0,0 UV-I 0 W/m 30,9 km/h (5 Bft)
16.02.2014 05:22 6,4 C 4,4 C 87 % 1004,4 hPa 0,0 l/m 0 min 0 min 0,0 UV-I 0 W/m 23,2 km/h (4 Bft)
16.02.2014 05:24 6,4 C 4,4 C 87 % 1004,4 hPa 0,0 l/m 0 min 0 min 0,0 UV-I 0 W/m 5,1 km/h (1 Bft)
16.02.2014 05:26 6,4 C 4,4 C 87 % 1004,4 hPa 0,0 l/m 0 min 0 min 0,0 UV-I 0 W/m 10,3 km/h (2 Bft)
16.02.2014 05:28 6,4 C 4,4 C 87 % 1004,3 hPa 0,0 l/m 0 min 0 min 0,0 UV-I 0 W/m 18,0 km/h (3 Bft)
16.02.2014 05:30 6,4 C 4,4 C 87 % 1004,4 hPa 0,0 l/m 0 min 0 min 0,0 UV-I 0 W/m 15,4 km/h (3 Bft)
16.02.2014 05:32 6,4 C 4,4 C 87 % 1004,4 hPa 0,0 l/m 0 min 0 min 0,0 UV-I 0 W/m 18,0 km/h (3 Bft)
16.02.2014 05:34 6,4 C 4,4 C 87 % 1004,4 hPa 0,0 l/m 0 min 0 min 0,0 UV-I 0 W/m 10,3 km/h (2 Bft)
16.02.2014 05:36 6,4 C 4,4 C 87 % 1004,4 hPa 0,0 l/m 0 min 0 min 0,0 UV-I 0 W/m 7,7 km/h (2 Bft)
16.02.2014 05:38 6,4 C 4,4 C 87 % 1004,5 hPa 0,0 l/m 0 min 0 min 0,0 UV-I 0 W/m 7,7 km/h (2 Bft)
16.02.2014 05:40 6,4 C 5,0 C 87 % 1004,5 hPa 0,0 l/m 0 min 0 min 0,0 UV-I 0 W/m 12,9 km/h (3 Bft)
16.02.2014 05:42 6,4 C 5,0 C 87 % 1004,5 hPa 0,0 l/m 0 min 0 min 0,0 UV-I 0 W/m 10,3 km/h (2 Bft)
16.02.2014 05:44 6,4 C 5,0 C 87 % 1004,6 hPa 0,0 l/m 0 min 0 min 0,0 UV-I 0 W/m 12,9 km/h (3 Bft)
16.02.2014 05:46 6,4 C 5,0 C 87 % 1004,7 hPa 0,0 l/m 0 min 0 min 0,0 UV-I 0 W/m 15,4 km/h (3 Bft)
16.02.2014 05:48 6,4 C 5,0 C 88 % 1004,6 hPa 0,0 l/m 0 min 0 min 0,0 UV-I 0 W/m 10,3 km/h (2 Bft)
16.02.2014 05:50 6,4 C 5,0 C 88 % 1004,7 hPa 0,0 l/m 0 min 0 min 0,0 UV-I 0 W/m 15,4 km/h (3 Bft)
16.02.2014 05:52 6,4 C 5,0 C 87 % 1004,6 hPa 0,0 l/m 0 min 0 min 0,0 UV-I 0 W/m 7,7 km/h (2 Bft)
16.02.2014 05:54 6,4 C 5,0 C 87 % 1004,6 hPa 0,0 l/m 0 min 0 min 0,0 UV-I 0 W/m 7,7 km/h (2 Bft)
16.02.2014 05:56 6,4 C 5,0 C 87 % 1004,8 hPa 0,0 l/m 0 min 0 min 0,0 UV-I 0 W/m 15,4 km/h (3 Bft)
16.02.2014 05:58 6,5 C 5,0 C 88 % 1004,9 hPa 0,0 l/m 0 min 0 min 0,0 UV-I 0 W/m 18,0 km/h (3 Bft)
16.02.2014 06:00 6,5 C 5,0 C 87 % 1004,9 hPa 0,0 l/m 0 min 0 min 0,0 UV-I 0 W/m 12,9 km/h (3 Bft)
16.02.2014 06:02 6,6 C 5,0 C 87 % 1004,9 hPa 0,0 l/m 0 min 0 min 0,0 UV-I 0 W/m 12,9 km/h (3 Bft)
16.02.2014 06:04 6,6 C 5,6 C 87 % 1005,0 hPa 0,0 l/m 0 min 0 min 0,0 UV-I 0 W/m 20,6 km/h (4 Bft)
16.02.2014 06:06 6,6 C 5,6 C 87 % 1004,9 hPa 0,0 l/m 0 min 0 min 0,0 UV-I 0 W/m 30,9 km/h (5 Bft)
16.02.2014 06:08 6,7 C 5,6 C 87 % 1004,9 hPa 0,0 l/m 0 min 0 min 0,0 UV-I 0 W/m 10,3 km/h (2 Bft)
16.02.2014 06:10 6,7 C 5,6 C 87 % 1005,0 hPa 0,0 l/m 0 min 0 min 0,0 UV-I 0 W/m 23,2 km/h (4 Bft)
16.02.2014 06:12 6,7 C 5,6 C 87 % 1005,0 hPa 0,0 l/m 0 min 0 min 0,0 UV-I 0 W/m 20,6 km/h (4 Bft)
16.02.2014 06:14 6,7 C 5,6 C 86 % 1004,9 hPa 0,0 l/m 0 min 0 min 0,0 UV-I 0 W/m 18,0 km/h (3 Bft)
16.02.2014 06:16 6,7 C 5,6 C 86 % 1005,0 hPa 0,0 l/m 0 min 0 min 0,0 UV-I 0 W/m 15,4 km/h (3 Bft)
16.02.2014 06:18 6,7 C 5,6 C 86 % 1005,0 hPa 0,0 l/m 0 min 0 min 0,0 UV-I 0 W/m 20,6 km/h (4 Bft)
16.02.2014 06:20 6,8 C 5,6 C 86 % 1005,0 hPa 0,0 l/m 0 min 0 min 0,0 UV-I 0 W/m 18,0 km/h (3 Bft)
16.02.2014 06:22 6,8 C 5,6 C 86 % 1005,0 hPa 0,0 l/m 0 min 0 min 0,0 UV-I 0 W/m 12,9 km/h (3 Bft)
16.02.2014 06:24 6,8 C 5,6 C 86 % 1005,1 hPa 0,0 l/m 0 min 0 min 0,0 UV-I 0 W/m 10,3 km/h (2 Bft)
16.02.2014 06:26 6,8 C 5,6 C 86 % 1005,2 hPa 0,0 l/m 0 min 0 min 0,0 UV-I 0 W/m 12,9 km/h (3 Bft)
16.02.2014 06:28 6,8 C 5,0 C 86 % 1005,1 hPa 0,0 l/m 0 min 0 min 0,0 UV-I 0 W/m 7,7 km/h (2 Bft)
16.02.2014 06:30 6,8 C 5,0 C 86 % 1005,1 hPa 0,0 l/m 0 min 0 min 0,0 UV-I 0 W/m 12,9 km/h (3 Bft)
16.02.2014 06:32 6,8 C 5,6 C 86 % 1005,1 hPa 0,0 l/m 0 min 0 min 0,0 UV-I 0 W/m 18,0 km/h (3 Bft)
16.02.2014 06:34 6,8 C 5,6 C 86 % 1005,2 hPa 0,0 l/m 0 min 0 min 0,0 UV-I 0 W/m 7,7 km/h (2 Bft)
16.02.2014 06:36 6,8 C 5,6 C 86 % 1005,3 hPa 0,0 l/m 0 min 0 min 0,0 UV-I 0 W/m 15,4 km/h (3 Bft)
16.02.2014 06:38 6,8 C 5,6 C 86 % 1005,4 hPa 0,0 l/m 0 min 0 min 0,0 UV-I 0 W/m 18,0 km/h (3 Bft)
16.02.2014 06:40 6,8 C 5,6 C 86 % 1005,4 hPa 0,0 l/m 0 min 0 min 0,0 UV-I 0 W/m 15,4 km/h (3 Bft)
16.02.2014 06:42 6,8 C 5,6 C 86 % 1005,3 hPa 0,0 l/m 0 min 0 min 0,0 UV-I 0 W/m 10,3 km/h (2 Bft)
16.02.2014 06:44 6,8 C 5,6 C 86 % 1005,2 hPa 0,0 l/m 0 min 0 min 0,0 UV-I 0 W/m 18,0 km/h (3 Bft)
16.02.2014 06:46 6,8 C 5,6 C 86 % 1005,3 hPa 0,0 l/m 0 min 0 min 0,0 UV-I 0 W/m 20,6 km/h (4 Bft)
16.02.2014 06:48 6,8 C 5,6 C 86 % 1005,5 hPa 0,0 l/m 0 min 0 min 0,0 UV-I 0 W/m 10,3 km/h (2 Bft)
16.02.2014 06:50 6,8 C 5,6 C 86 % 1005,5 hPa 0,0 l/m 0 min 0 min 0,0 UV-I 0 W/m 15,4 km/h (3 Bft)
16.02.2014 06:52 6,8 C 5,6 C 86 % 1005,5 hPa 0,0 l/m 0 min 0 min 0,0 UV-I 0 W/m 20,6 km/h (4 Bft)
16.02.2014 06:54 6,8 C 5,6 C 86 % 1005,5 hPa 0,0 l/m 0 min 0 min 0,0 UV-I 0 W/m 12,9 km/h (3 Bft)
16.02.2014 06:56 6,8 C 5,6 C 86 % 1005,5 hPa 0,0 l/m 0 min 0 min 0,0 UV-I 0 W/m 12,9 km/h (3 Bft)
16.02.2014 06:58 6,9 C 5,6 C 86 % 1005,5 hPa 0,0 l/m 0 min 0 min 0,0 UV-I 0 W/m 18,0 km/h (3 Bft)
16.02.2014 07:00 6,8 C 5,6 C 86 % 1005,5 hPa 0,0 l/m 0 min 0 min 0,0 UV-I 0 W/m 10,3 km/h (2 Bft)
16.02.2014 07:02 6,9 C 5,6 C 86 % 1005,6 hPa 0,0 l/m 0 min 0 min 0,0 UV-I 0 W/m 23,2 km/h (4 Bft)
16.02.2014 07:04 6,9 C 5,6 C 86 % 1005,6 hPa 0,0 l/m 0 min 0 min 0,0 UV-I 0 W/m 7,7 km/h (2 Bft)
16.02.2014 07:06 6,9 C 5,6 C 85 % 1005,6 hPa 0,0 l/m 0 min 0 min 0,0 UV-I 0 W/m 18,0 km/h (3 Bft)
16.02.2014 07:08 6,9 C 5,6 C 85 % 1005,6 hPa 0,0 l/m 0 min 0 min 0,0 UV-I 0 W/m 7,7 km/h (2 Bft)
16.02.2014 07:10 6,9 C 5,6 C 86 % 1005,6 hPa 0,0 l/m 0 min 0 min 0,0 UV-I 0 W/m 2,6 km/h (1 Bft)
16.02.2014 07:12 6,9 C 5,6 C 86 % 1005,6 hPa 0,0 l/m 0 min 0 min 0,0 UV-I 0 W/m 7,7 km/h (2 Bft)
16.02.2014 07:14 6,9 C 5,6 C 86 % 1005,6 hPa 0,0 l/m 0 min 0 min 0,0 UV-I 0 W/m 12,9 km/h (3 Bft)
16.02.2014 07:16 6,9 C 5,6 C 86 % 1005,7 hPa 0,0 l/m 0 min 0 min 0,0 UV-I 0 W/m 15,4 km/h (3 Bft)
16.02.2014 07:18 6,9 C 5,6 C 86 % 1005,7 hPa 0,0 l/m 0 min 0 min 0,0 UV-I 0 W/m 15,4 km/h (3 Bft)
16.02.2014 07:20 6,9 C 5,6 C 85 % 1005,8 hPa 0,0 l/m 0 min 0 min 0,0 UV-I 0 W/m 2,6 km/h (1 Bft)
16.02.2014 07:22 6,9 C 5,6 C 85 % 1005,8 hPa 0,0 l/m 0 min 0 min 0,0 UV-I 0 W/m 7,7 km/h (2 Bft)
16.02.2014 07:24 6,9 C 5,6 C 85 % 1005,8 hPa 0,0 l/m 0 min 0 min 0,0 UV-I 0 W/m 20,6 km/h (4 Bft)
16.02.2014 07:26 6,8 C 5,6 C 85 % 1005,9 hPa 0,0 l/m 0 min 0 min 0,0 UV-I 0 W/m 15,4 km/h (3 Bft)
16.02.2014 07:28 6,8 C 5,0 C 85 % 1005,9 hPa 0,0 l/m 0 min 0 min 0,0 UV-I 0 W/m 18,0 km/h (3 Bft)
16.02.2014 07:30 6,8 C 5,0 C 85 % 1005,9 hPa 0,0 l/m 0 min 0 min 0,0 UV-I 0 W/m 15,4 km/h (3 Bft)
16.02.2014 07:32 6,8 C 5,6 C 85 % 1005,9 hPa 0,0 l/m 0 min 0 min 0,0 UV-I 0 W/m 12,9 km/h (3 Bft)
16.02.2014 07:34 6,8 C 5,6 C 86 % 1005,9 hPa 0,0 l/m 0 min 0 min 0,0 UV-I 0 W/m 18,0 km/h (3 Bft)
16.02.2014 07:36 6,8 C 5,0 C 86 % 1006,0 hPa 0,0 l/m 0 min 0 min 0,0 UV-I 0 W/m 7,7 km/h (2 Bft)
16.02.2014 07:38 6,8 C 5,0 C 86 % 1006,0 hPa 0,0 l/m 0 min 0 min 0,0 UV-I 0 W/m 18,0 km/h (3 Bft)
16.02.2014 07:40 6,8 C 5,0 C 86 % 1006,0 hPa 0,0 l/m 0 min 0 min 0,0 UV-I 0 W/m 5,1 km/h (1 Bft)
16.02.2014 07:42 6,8 C 5,0 C 86 % 1006,1 hPa 0,0 l/m 0 min 0 min 0,0 UV-I 0 W/m 12,9 km/h (3 Bft)
16.02.2014 07:44 6,8 C 5,0 C 86 % 1006,1 hPa 0,0 l/m 0 min 0 min 0,0 UV-I 0 W/m 15,4 km/h (3 Bft)
16.02.2014 07:46 6,8 C 5,0 C 86 % 1006,1 hPa 0,0 l/m 0 min 0 min 0,0 UV-I 0 W/m 10,3 km/h (2 Bft)
16.02.2014 07:48 6,7 C 5,0 C 86 % 1006,1 hPa 0,0 l/m 0 min 0 min 0,0 UV-I 5 W/m 15,4 km/h (3 Bft)
16.02.2014 07:50 6,7 C 5,0 C 86 % 1006,1 hPa 0,0 l/m 0 min 0 min 0,0 UV-I 5 W/m 7,7 km/h (2 Bft)
16.02.2014 07:52 6,7 C 5,0 C 86 % 1006,2 hPa 0,0 l/m 0 min 0 min 0,0 UV-I 5 W/m 15,4 km/h (3 Bft)
16.02.2014 07:54 6,7 C 5,0 C 86 % 1006,2 hPa 0,0 l/m 0 min 0 min 0,0 UV-I 7 W/m 15,4 km/h (3 Bft)
16.02.2014 07:56 6,7 C 5,0 C 86 % 1006,2 hPa 0,0 l/m 0 min 0 min 0,0 UV-I 7 W/m 7,7 km/h (2 Bft)
16.02.2014 07:58 6,7 C 5,0 C 86 % 1006,3 hPa 0,0 l/m 0 min 0 min 0,0 UV-I 7 W/m 18,0 km/h (3 Bft)
16.02.2014 08:00 6,7 C 5,0 C 86 % 1006,3 hPa 0,0 l/m 0 min 0 min 0,0 UV-I 7 W/m 5,1 km/h (1 Bft)
16.02.2014 08:02 6,7 C 5,0 C 86 % 1006,3 hPa 0,0 l/m 0 min 0 min 0,0 UV-I 9 W/m 7,7 km/h (2 Bft)
16.02.2014 08:04 6,7 C 5,0 C 86 % 1006,4 hPa 0,0 l/m 0 min 0 min 0,0 UV-I 9 W/m 18,0 km/h (3 Bft)
16.02.2014 08:06 6,6 C 5,0 C 86 % 1006,4 hPa 0,0 l/m 0 min 0 min 0,0 UV-I 11 W/m 10,3 km/h (2 Bft)
16.02.2014 08:08 6,6 C 5,0 C 86 % 1006,5 hPa 0,0 l/m 0 min 0 min 0,0 UV-I 14 W/m 18,0 km/h (3 Bft)
16.02.2014 08:10 6,6 C 5,0 C 86 % 1006,4 hPa 0,0 l/m 0 min 0 min 0,0 UV-I 23 W/m 25,7 km/h (4 Bft)
16.02.2014 08:12 6,6 C 5,6 C 86 % 1006,4 hPa 0,0 l/m 2 min 0 min 0,0 UV-I 32 W/m 12,9 km/h (3 Bft)
16.02.2014 08:14 6,7 C 5,6 C 86 % 1006,5 hPa 0,0 l/m 2 min 0 min 0,0 UV-I 33 W/m 2,6 km/h (1 Bft)
16.02.2014 08:16 6,7 C 5,6 C 86 % 1006,5 hPa 0,0 l/m 2 min 0 min 0,0 UV-I 42 W/m 12,9 km/h (3 Bft)
16.02.2014 08:18 6,7 C 5,6 C 86 % 1006,4 hPa 0,0 l/m 0 min 0 min 0,0 UV-I 37 W/m 30,9 km/h (5 Bft)
16.02.2014 08:20 6,7 C 5,6 C 86 % 1006,5 hPa 0,0 l/m 2 min 0 min 0,0 UV-I 47 W/m 25,7 km/h (4 Bft)
16.02.2014 08:22 6,7 C 5,6 C 86 % 1006,5 hPa 0,0 l/m 2 min 0 min 0,0 UV-I 44 W/m 7,7 km/h (2 Bft)
16.02.2014 08:24 6,7 C 5,6 C 86 % 1006,7 hPa 0,0 l/m 2 min 0 min 0,0 UV-I 58 W/m 18,0 km/h (3 Bft)
16.02.2014 08:26 6,7 C 5,6 C 86 % 1006,6 hPa 0,0 l/m 2 min 0 min 0,0 UV-I 56 W/m 15,4 km/h (3 Bft)
16.02.2014 08:28 6,7 C 5,6 C 86 % 1006,6 hPa 0,0 l/m 0 min 0 min 0,0 UV-I 42 W/m 10,3 km/h (2 Bft)
16.02.2014 08:30 6,7 C 5,6 C 86 % 1006,7 hPa 0,0 l/m 0 min 0 min 0,0 UV-I 35 W/m 20,6 km/h (4 Bft)
16.02.2014 08:32 6,7 C 5,6 C 85 % 1006,6 hPa 0,0 l/m 0 min 0 min 0,0 UV-I 33 W/m 15,4 km/h (3 Bft)
16.02.2014 08:34 6,7 C 5,0 C 85 % 1006,7 hPa 0,0 l/m 0 min 0 min 0,0 UV-I 25 W/m 18,0 km/h (3 Bft)
16.02.2014 08:36 6,7 C 5,0 C 85 % 1006,7 hPa 0,0 l/m 0 min 0 min 0,0 UV-I 25 W/m 15,4 km/h (3 Bft)
16.02.2014 08:38 6,7 C 5,0 C 85 % 1006,7 hPa 0,0 l/m 0 min 0 min 0,0 UV-I 30 W/m 18,0 km/h (3 Bft)
16.02.2014 08:40 6,7 C 5,0 C 85 % 1006,8 hPa 0,0 l/m 0 min 0 min 0,0 UV-I 30 W/m 10,3 km/h (2 Bft)
16.02.2014 08:42 6,7 C 5,0 C 85 % 1006,9 hPa 0,0 l/m 0 min 0 min 0,0 UV-I 37 W/m 12,9 km/h (3 Bft)
16.02.2014 08:44 6,7 C 5,0 C 85 % 1006,9 hPa 0,0 l/m 0 min 0 min 0,0 UV-I 37 W/m 10,3 km/h (2 Bft)
16.02.2014 08:46 6,7 C 5,0 C 85 % 1006,9 hPa 0,0 l/m 0 min 0 min 0,0 UV-I 44 W/m 10,3 km/h (2 Bft)
16.02.2014 08:48 6,7 C 5,0 C 85 % 1006,9 hPa 0,0 l/m 0 min 0 min 0,0 UV-I 39 W/m 23,2 km/h (4 Bft)
16.02.2014 08:50 6,7 C 5,0 C 85 % 1006,9 hPa 0,0 l/m 0 min 0 min 0,0 UV-I 39 W/m 18,0 km/h (3 Bft)
16.02.2014 08:52 6,7 C 5,6 C 85 % 1007,0 hPa 0,0 l/m 0 min 0 min 0,0 UV-I 46 W/m 18,0 km/h (3 Bft)
16.02.2014 08:54 6,7 C 5,6 C 85 % 1007,0 hPa 0,0 l/m 0 min 0 min 0,0 UV-I 54 W/m 18,0 km/h (3 Bft)
16.02.2014 08:56 6,7 C 5,6 C 85 % 1007,1 hPa 0,0 l/m 0 min 0 min 0,0 UV-I 62 W/m 23,2 km/h (4 Bft)
16.02.2014 08:58 6,7 C 5,6 C 85 % 1007,2 hPa 0,0 l/m 0 min 0 min 0,0 UV-I 90 W/m 25,7 km/h (4 Bft)
16.02.2014 09:00 6,7 C 5,6 C 85 % 1007,1 hPa 0,0 l/m 2 min 0 min 0,0 UV-I 105 W/m 25,7 km/h (4 Bft)
16.02.2014 09:02 6,7 C 5,6 C 85 % 1007,1 hPa 0,0 l/m 2 min 0 min 0,0 UV-I 114 W/m 18,0 km/h (3 Bft)
16.02.2014 09:04 6,8 C 5,6 C 84 % 1007,2 hPa 0,0 l/m 2 min 0 min 0,0 UV-I 118 W/m 12,9 km/h (3 Bft)
16.02.2014 09:06 6,8 C 5,6 C 84 % 1007,2 hPa 0,0 l/m 2 min 0 min 0,0 UV-I 121 W/m 15,4 km/h (3 Bft)
16.02.2014 09:08 6,8 C 5,6 C 84 % 1007,3 hPa 0,0 l/m 2 min 0 min 0,0 UV-I 125 W/m 15,4 km/h (3 Bft)
16.02.2014 09:10 6,9 C 5,6 C 84 % 1007,3 hPa 0,0 l/m 2 min 0 min 0,0 UV-I 135 W/m 10,3 km/h (2 Bft)
16.02.2014 09:12 6,9 C 5,6 C 84 % 1007,3 hPa 0,0 l/m 2 min 0 min 0,0 UV-I 151 W/m 18,0 km/h (3 Bft)
16.02.2014 09:14 6,9 C 5,6 C 84 % 1007,4 hPa 0,0 l/m 2 min 0 min 0,0 UV-I 186 W/m 7,7 km/h (2 Bft)
16.02.2014 09:16 7,0 C 6,1 C 83 % 1007,4 hPa 0,0 l/m 2 min 0 min 0,0 UV-I 188 W/m 20,6 km/h (4 Bft)
16.02.2014 09:18 7,1 C 6,1 C 83 % 1007,5 hPa 0,0 l/m 2 min 0 min 0,0 UV-I 206 W/m 28,3 km/h (4 Bft)
16.02.2014 09:20 7,1 C 6,1 C 83 % 1007,5 hPa 0,0 l/m 2 min 0 min 0,0 UV-I 158 W/m 15,4 km/h (3 Bft)
16.02.2014 09:22 7,2 C 6,1 C 83 % 1007,4 hPa 0,0 l/m 0 min 0 min 0,0 UV-I 102 W/m 18,0 km/h (3 Bft)
16.02.2014 09:24 7,2 C 6,1 C 82 % 1007,5 hPa 0,0 l/m 0 min 0 min 0,0 UV-I 116 W/m 18,0 km/h (3 Bft)
16.02.2014 09:26 7,2 C 6,1 C 82 % 1007,6 hPa 0,0 l/m 0 min 0 min 0,0 UV-I 118 W/m 20,6 km/h (4 Bft)
16.02.2014 09:28 7,3 C 6,1 C 82 % 1007,6 hPa 0,0 l/m 0 min 0 min 0,0 UV-I 100 W/m 25,7 km/h (4 Bft)
16.02.2014 09:30 7,3 C 6,1 C 82 % 1007,5 hPa 0,0 l/m 0 min 0 min 0,0 UV-I 123 W/m 15,4 km/h (3 Bft)
16.02.2014 09:32 7,3 C 6,1 C 82 % 1007,6 hPa 0,0 l/m 2 min 0 min 0,0 UV-I 153 W/m 18,0 km/h (3 Bft)
16.02.2014 09:34 7,3 C 6,1 C 82 % 1007,7 hPa 0,0 l/m 0 min 0 min 0,0 UV-I 127 W/m 18,0 km/h (3 Bft)
16.02.2014 09:36 7,2 C 6,1 C 82 % 1007,7 hPa 0,0 l/m 2 min 0 min 0,0 UV-I 141 W/m 25,7 km/h (4 Bft)
16.02.2014 09:38 7,3 C 6,7 C 81 % 1007,7 hPa 0,0 l/m 0 min 0 min 0,0 UV-I 120 W/m 12,9 km/h (3 Bft)
16.02.2014 09:40 7,3 C 6,1 C 82 % 1007,7 hPa 0,0 l/m 0 min 0 min 0,0 UV-I 81 W/m 10,3 km/h (2 Bft)
16.02.2014 09:42 7,3 C 6,1 C 82 % 1007,7 hPa 0,0 l/m 0 min 0 min 0,0 UV-I 69 W/m 15,4 km/h (3 Bft)
16.02.2014 09:44 7,2 C 6,1 C 82 % 1007,7 hPa 0,0 l/m 0 min 0 min 0,0 UV-I 95 W/m 23,2 km/h (4 Bft)
16.02.2014 09:46 7,2 C 6,1 C 82 % 1007,7 hPa 0,0 l/m 0 min 0 min 0,0 UV-I 88 W/m 15,4 km/h (3 Bft)
16.02.2014 09:48 7,2 C 6,1 C 82 % 1007,7 hPa 0,0 l/m 2 min 0 min 0,0 UV-I 151 W/m 7,7 km/h (2 Bft)
16.02.2014 09:50 7,2 C 6,1 C 82 % 1007,8 hPa 0,0 l/m 0 min 0 min 0,0 UV-I 121 W/m 20,6 km/h (4 Bft)
16.02.2014 09:52 7,2 C 6,1 C 82 % 1007,8 hPa 0,0 l/m 0 min 0 min 0,0 UV-I 148 W/m 25,7 km/h (4 Bft)
16.02.2014 09:54 7,3 C 6,7 C 82 % 1007,8 hPa 0,0 l/m 0 min 0 min 0,0 UV-I 132 W/m 15,4 km/h (3 Bft)
16.02.2014 09:56 7,3 C 6,7 C 82 % 1007,8 hPa 0,0 l/m 0 min 0 min 0,0 UV-I 135 W/m 15,4 km/h (3 Bft)
16.02.2014 09:58 7,3 C 6,7 C 82 % 1007,8 hPa 0,0 l/m 0 min 0 min 0,0 UV-I 130 W/m 18,0 km/h (3 Bft)
16.02.2014 10:00 7,4 C 6,7 C 82 % 1007,8 hPa 0,0 l/m 0 min 0 min 0,0 UV-I 134 W/m 20,6 km/h (4 Bft)
16.02.2014 10:02 7,4 C 6,7 C 82 % 1007,8 hPa 0,0 l/m 0 min 0 min 0,0 UV-I 158 W/m 15,4 km/h (3 Bft)
16.02.2014 10:04 7,4 C 6,7 C 82 % 1007,8 hPa 0,0 l/m 2 min 0 min 0,0 UV-I 315 W/m 12,9 km/h (3 Bft)
16.02.2014 10:06 7,5 C 6,7 C 82 % 1007,8 hPa 0,0 l/m 2 min 0 min 0,0 UV-I 267 W/m 33,5 km/h (5 Bft)
16.02.2014 10:08 7,6 C 6,7 C 82 % 1007,8 hPa 0,0 l/m 0 min 0 min 0,0 UV-I 137 W/m 12,9 km/h (3 Bft)
16.02.2014 10:10 7,6 C 6,7 C 82 % 1007,9 hPa 0,0 l/m 0 min 0 min 0,0 UV-I 137 W/m 20,6 km/h (4 Bft)
16.02.2014 10:12 7,6 C 6,7 C 82 % 1007,9 hPa 0,0 l/m 0 min 0 min 0,0 UV-I 142 W/m 23,2 km/h (4 Bft)
16.02.2014 10:14 7,6 C 6,7 C 82 % 1007,9 hPa 0,0 l/m 0 min 0 min 0,0 UV-I 144 W/m 15,4 km/h (3 Bft)
16.02.2014 10:16 7,7 C 6,7 C 82 % 1007,9 hPa 0,0 l/m 0 min 0 min 0,0 UV-I 121 W/m 18,0 km/h (3 Bft)
16.02.2014 10:18 7,7 C 7,2 C 82 % 1007,9 hPa 0,0 l/m 2 min 0 min 0,0 UV-I 253 W/m 23,2 km/h (4 Bft)
16.02.2014 10:20 7,7 C 7,2 C 81 % 1007,9 hPa 0,0 l/m 2 min 0 min 0,0 UV-I 301 W/m 28,3 km/h (4 Bft)
16.02.2014 10:22 7,8 C 7,2 C 81 % 1007,8 hPa 0,0 l/m 2 min 0 min 0,0 UV-I 320 W/m 23,2 km/h (4 Bft)
16.02.2014 10:24 8,0 C 7,2 C 81 % 1007,9 hPa 0,0 l/m 2 min 0 min 0,0 UV-I 281 W/m 18,0 km/h (3 Bft)
16.02.2014 10:26 8,1 C 7,2 C 81 % 1007,9 hPa 0,0 l/m 0 min 0 min 0,0 UV-I 141 W/m 12,9 km/h (3 Bft)
16.02.2014 10:28 8,1 C 7,2 C 81 % 1008,0 hPa 0,0 l/m 0 min 0 min 0,0 UV-I 176 W/m 20,6 km/h (4 Bft)
16.02.2014 10:30 8,1 C 7,2 C 80 % 1008,0 hPa 0,0 l/m 0 min 0 min 0,0 UV-I 176 W/m 30,9 km/h (5 Bft)
16.02.2014 10:32 8,1 C 7,2 C 80 % 1008,0 hPa 0,0 l/m 0 min 0 min 0,0 UV-I 172 W/m 18,0 km/h (3 Bft)
16.02.2014 10:34 8,1 C 7,2 C 80 % 1008,0 hPa 0,0 l/m 0 min 0 min 0,0 UV-I 160 W/m 18,0 km/h (3 Bft)
16.02.2014 10:36 8,2 C 7,2 C 81 % 1008,1 hPa 0,0 l/m 0 min 0 min 0,0 UV-I 137 W/m 12,9 km/h (3 Bft)
16.02.2014 10:38 8,2 C 7,2 C 80 % 1008,1 hPa 0,0 l/m 0 min 0 min 0,0 UV-I 139 W/m 12,9 km/h (3 Bft)
16.02.2014 10:40 8,2 C 7,8 C 81 % 1008,1 hPa 0,0 l/m 0 min 0 min 0,0 UV-I 146 W/m 12,9 km/h (3 Bft)
16.02.2014 10:42 8,2 C 7,8 C 80 % 1008,1 hPa 0,0 l/m 0 min 0 min 0,0 UV-I 169 W/m 12,9 km/h (3 Bft)
16.02.2014 10:44 8,2 C 7,8 C 80 % 1008,2 hPa 0,0 l/m 0 min 0 min 0,0 UV-I 153 W/m 30,9 km/h (5 Bft)
16.02.2014 10:46 8,1 C 7,2 C 80 % 1008,1 hPa 0,0 l/m 0 min 0 min 0,0 UV-I 125 W/m 30,9 km/h (5 Bft)
16.02.2014 10:48 8,1 C 7,2 C 80 % 1008,2 hPa 0,0 l/m 0 min 0 min 0,0 UV-I 130 W/m 5,1 km/h (1 Bft)
16.02.2014 10:50 8,2 C 7,8 C 80 % 1008,2 hPa 0,0 l/m 0 min 0 min 0,0 UV-I 183 W/m 18,0 km/h (3 Bft)
16.02.2014 10:52 8,2 C 7,8 C 80 % 1008,3 hPa 0,0 l/m 0 min 0 min 0,0 UV-I 158 W/m 12,9 km/h (3 Bft)
16.02.2014 10:54 8,2 C 7,8 C 78 % 1008,2 hPa 0,0 l/m 0 min 0 min 0,0 UV-I 155 W/m 23,2 km/h (4 Bft)
16.02.2014 10:56 8,2 C 7,2 C 78 % 1008,2 hPa 0,0 l/m 0 min 0 min 0,0 UV-I 95 W/m 28,3 km/h (4 Bft)
16.02.2014 10:58 8,2 C 7,2 C 78 % 1008,3 hPa 0,0 l/m 0 min 0 min 0,0 UV-I 128 W/m 18,0 km/h (3 Bft)
16.02.2014 11:00 8,3 C 7,2 C 78 % 1008,3 hPa 0,0 l/m 2 min 0 min 0,0 UV-I 257 W/m 15,4 km/h (3 Bft)
16.02.2014 11:02 8,3 C 7,2 C 78 % 1008,3 hPa 0,0 l/m 0 min 0 min 0,0 UV-I 127 W/m 20,6 km/h (4 Bft)
16.02.2014 11:04 8,3 C 7,8 C 78 % 1008,4 hPa 0,0 l/m 2 min 0 min 0,0 UV-I 403 W/m 18,0 km/h (3 Bft)
16.02.2014 11:06 8,4 C 7,8 C 77 % 1008,4 hPa 0,0 l/m 0 min 0 min 0,0 UV-I 137 W/m 23,2 km/h (4 Bft)
16.02.2014 11:08 8,4 C 7,2 C 77 % 1008,5 hPa 0,0 l/m 0 min 0 min 0,0 UV-I 178 W/m 18,0 km/h (3 Bft)
16.02.2014 11:10 8,4 C 7,2 C 78 % 1008,5 hPa 0,0 l/m 0 min 0 min 0,0 UV-I 178 W/m 15,4 km/h (3 Bft)
16.02.2014 11:12 8,4 C 7,8 C 78 % 1008,4 hPa 0,0 l/m 2 min 0 min 0,0 UV-I 455 W/m 18,0 km/h (3 Bft)
16.02.2014 11:14 8,5 C 7,8 C 77 % 1008,4 hPa 0,0 l/m 2 min 0 min 0,0 UV-I 455 W/m 25,7 km/h (4 Bft)
16.02.2014 11:16 8,6 C 7,8 C 77 % 1008,5 hPa 0,0 l/m 2 min 0 min 0,0 UV-I 455 W/m 25,7 km/h (4 Bft)
16.02.2014 11:18 8,7 C 7,8 C 77 % 1008,5 hPa 0,0 l/m 0 min 0 min 0,0 UV-I 123 W/m 18,0 km/h (3 Bft)
16.02.2014 11:20 8,7 C 7,8 C 76 % 1008,5 hPa 0,0 l/m 0 min 0 min 0,0 UV-I 125 W/m 15,4 km/h (3 Bft)
16.02.2014 11:22 8,7 C 7,8 C 76 % 1008,6 hPa 0,0 l/m 2 min 0 min 0,0 UV-I 359 W/m 12,9 km/h (3 Bft)
16.02.2014 11:24 8,6 C 7,8 C 75 % 1008,6 hPa 0,0 l/m 0 min 0 min 0,0 UV-I 134 W/m 25,7 km/h (4 Bft)
16.02.2014 11:26 8,5 C 7,2 C 75 % 1008,5 hPa 0,0 l/m 0 min 0 min 0,0 UV-I 207 W/m 20,6 km/h (4 Bft)
16.02.2014 11:28 8,6 C 7,8 C 74 % 1008,6 hPa 0,0 l/m 2 min 0 min 0,0 UV-I 404 W/m 20,6 km/h (4 Bft)
16.02.2014 11:30 8,6 C 7,2 C 74 % 1008,7 hPa 0,0 l/m 2 min 0 min 0,0 UV-I 422 W/m 12,9 km/h (3 Bft)
16.02.2014 11:32 8,7 C 7,8 C 74 % 1008,7 hPa 0,0 l/m 2 min 0 min 0,0 UV-I 394 W/m 25,7 km/h (4 Bft)
16.02.2014 11:34 8,8 C 7,8 C 74 % 1008,8 hPa 0,0 l/m 2 min 0 min 0,0 UV-I 445 W/m 15,4 km/h (3 Bft)
16.02.2014 11:36 8,9 C 7,8 C 73 % 1008,7 hPa 0,0 l/m 0 min 0 min 0,0 UV-I 98 W/m 28,3 km/h (4 Bft)
16.02.2014 11:38 8,8 C 7,8 C 73 % 1008,8 hPa 0,0 l/m 2 min 0 min 0,0 UV-I 445 W/m 30,9 km/h (5 Bft)
16.02.2014 11:40 8,8 C 7,8 C 72 % 1008,7 hPa 0,0 l/m 2 min 0 min 0,0 UV-I 445 W/m 18,0 km/h (3 Bft)
16.02.2014 11:42 8,8 C 7,8 C 73 % 1008,8 hPa 0,0 l/m 2 min 0 min 0,0 UV-I 462 W/m 12,9 km/h (3 Bft)
16.02.2014 11:44 8,9 C 8,3 C 75 % 1008,8 hPa 0,0 l/m 2 min 0 min 0,0 UV-I 492 W/m 12,9 km/h (3 Bft)
16.02.2014 11:46 9,1 C 8,3 C 74 % 1008,8 hPa 0,0 l/m 2 min 0 min 0,0 UV-I 455 W/m 15,4 km/h (3 Bft)
16.02.2014 11:48 9,3 C 8,3 C 73 % 1008,8 hPa 0,0 l/m 2 min 0 min 0,0 UV-I 461 W/m 10,3 km/h (2 Bft)
16.02.2014 11:50 9,4 C 8,3 C 73 % 1008,9 hPa 0,0 l/m 0 min 0 min 0,0 UV-I 149 W/m 30,9 km/h (5 Bft)
16.02.2014 11:52 9,2 C 8,3 C 73 % 1008,9 hPa 0,0 l/m 0 min 0 min 0,0 UV-I 105 W/m 18,0 km/h (3 Bft)
16.02.2014 11:54 9,0 C 7,8 C 74 % 1008,9 hPa 0,0 l/m 0 min 0 min 0,0 UV-I 156 W/m 12,9 km/h (3 Bft)
16.02.2014 11:56 8,9 C 7,8 C 73 % 1008,9 hPa 0,0 l/m 0 min 0 min 0,0 UV-I 155 W/m 12,9 km/h (3 Bft)
16.02.2014 11:58 8,8 C 7,8 C 74 % 1008,9 hPa 0,0 l/m 2 min 0 min 0,0 UV-I 244 W/m 20,6 km/h (4 Bft)
16.02.2014 12:00 8,9 C 8,3 C 74 % 1009,0 hPa 0,0 l/m 2 min 0 min 0,0 UV-I 512 W/m 28,3 km/h (4 Bft)
16.02.2014 12:02 9,1 C 8,9 C 75 % 1008,9 hPa 0,0 l/m 2 min 0 min 0,0 UV-I 445 W/m 15,4 km/h (3 Bft)
16.02.2014 12:04 9,2 C 8,9 C 74 % 1009,1 hPa 0,0 l/m 2 min 0 min 0,0 UV-I 517 W/m 15,4 km/h (3 Bft)
16.02.2014 12:06 9,2 C 8,9 C 74 % 1008,9 hPa 0,0 l/m 2 min 0 min 0,0 UV-I 536 W/m 15,4 km/h (3 Bft)
16.02.2014 12:08 9,4 C 8,9 C 73 % 1009,0 hPa 0,0 l/m 2 min 0 min 0,0 UV-I 529 W/m 18,0 km/h (3 Bft)
16.02.2014 12:10 9,6 C 9,4 C 73 % 1009,0 hPa 0,0 l/m 2 min 0 min 0,0 UV-I 531 W/m 20,6 km/h (4 Bft)
16.02.2014 12:12 9,6 C 9,4 C 72 % 1008,9 hPa 0,0 l/m 2 min 0 min 0,0 UV-I 519 W/m 25,7 km/h (4 Bft)
16.02.2014 12:14 9,6 C 9,4 C 71 % 1008,9 hPa 0,0 l/m 2 min 0 min 0,0 UV-I 519 W/m 23,2 km/h (4 Bft)
16.02.2014 12:16 9,5 C 9,4 C 71 % 1008,8 hPa 0,0 l/m 2 min 0 min 0,0 UV-I 519 W/m 28,3 km/h (4 Bft)
16.02.2014 12:18 9,6 C 9,4 C 72 % 1008,9 hPa 0,0 l/m 2 min 0 min 0,0 UV-I 533 W/m 20,6 km/h (4 Bft)
16.02.2014 12:20 9,6 C 8,9 C 72 % 1008,9 hPa 0,0 l/m 2 min 0 min 0,0 UV-I 512 W/m 38,6 km/h (5 Bft)
16.02.2014 12:22 9,7 C 8,9 C 71 % 1008,9 hPa 0,0 l/m 2 min 0 min 0,0 UV-I 531 W/m 25,7 km/h (4 Bft)
16.02.2014 12:24 9,7 C 9,4 C 71 % 1008,9 hPa 0,0 l/m 2 min 0 min 0,0 UV-I 561 W/m 25,7 km/h (4 Bft)
16.02.2014 12:26 9,8 C 9,4 C 72 % 1009,0 hPa 0,0 l/m 2 min 0 min 0,0 UV-I 422 W/m 25,7 km/h (4 Bft)
16.02.2014 12:28 9,9 C 9,4 C 71 % 1008,9 hPa 0,0 l/m 2 min 0 min 0,0 UV-I 476 W/m 20,6 km/h (4 Bft)
16.02.2014 12:30 9,8 C 8,9 C 70 % 1008,9 hPa 0,0 l/m 2 min 0 min 0,0 UV-I 471 W/m 23,2 km/h (4 Bft)
16.02.2014 12:32 9,8 C 9,4 C 70 % 1008,9 hPa 0,0 l/m 2 min 0 min 0,0 UV-I 515 W/m 12,9 km/h (3 Bft)
16.02.2014 12:34 9,9 C 9,4 C 69 % 1008,9 hPa 0,0 l/m 2 min 0 min 0,0 UV-I 515 W/m 15,4 km/h (3 Bft)
16.02.2014 12:36 10,0 C 9,4 C 70 % 1008,9 hPa 0,0 l/m 2 min 0 min 0,0 UV-I 515 W/m 15,4 km/h (3 Bft)
16.02.2014 12:38 10,0 C 9,4 C 70 % 1008,9 hPa 0,0 l/m 0 min 0 min 0,0 UV-I 213 W/m 30,9 km/h (5 Bft)
16.02.2014 12:40 9,9 C 9,4 C 71 % 1008,9 hPa 0,0 l/m 0 min 0 min 0,0 UV-I 172 W/m 18,0 km/h (3 Bft)
16.02.2014 12:42 9,9 C 9,4 C 72 % 1008,9 hPa 0,0 l/m 2 min 0 min 0,0 UV-I 517 W/m 20,6 km/h (4 Bft)
16.02.2014 12:44 10,0 C 9,4 C 73 % 1008,9 hPa 0,0 l/m 2 min 0 min 0,0 UV-I 443 W/m 10,3 km/h (2 Bft)
16.02.2014 12:46 10,1 C 9,4 C 72 % 1008,9 hPa 0,0 l/m 2 min 0 min 0,0 UV-I 432 W/m 18,0 km/h (3 Bft)
16.02.2014 12:48 9,9 C 8,9 C 70 % 1008,9 hPa 0,0 l/m 0 min 0 min 0,0 UV-I 60 W/m 23,2 km/h (4 Bft)
16.02.2014 12:50 9,6 C 8,3 C 71 % 1008,9 hPa 0,0 l/m 0 min 0 min 0,0 UV-I 58 W/m 23,2 km/h (4 Bft)
16.02.2014 12:52 9,3 C 7,8 C 71 % 1008,9 hPa 0,0 l/m 0 min 0 min 0,5 UV-I 67 W/m 23,2 km/h (4 Bft)
16.02.2014 12:54 9,1 C 7,8 C 72 % 1008,9 hPa 0,0 l/m 0 min 0 min 0,5 UV-I 72 W/m 23,2 km/h (4 Bft)
16.02.2014 12:56 9,0 C 7,8 C 73 % 1009,0 hPa 0,0 l/m 2 min 0 min 0,0 UV-I 446 W/m 12,9 km/h (3 Bft)
16.02.2014 12:58 9,0 C 7,8 C 73 % 1009,0 hPa 0,0 l/m 0 min 0 min 0,0 UV-I 120 W/m 30,9 km/h (5 Bft)
16.02.2014 13:00 8,9 C 8,3 C 73 % 1009,0 hPa 0,0 l/m 0 min 0 min 0,0 UV-I 153 W/m 30,9 km/h (5 Bft)
16.02.2014 13:02 9,0 C 8,3 C 72 % 1009,0 hPa 0,0 l/m 0 min 0 min 0,0 UV-I 200 W/m 30,9 km/h (5 Bft)
16.02.2014 13:04 9,1 C 8,3 C 71 % 1009,0 hPa 0,0 l/m 0 min 0 min 0,0 UV-I 209 W/m 20,6 km/h (4 Bft)
16.02.2014 13:06 9,2 C 8,9 C 71 % 1009,0 hPa 0,0 l/m 2 min 0 min 0,0 UV-I 533 W/m 28,3 km/h (4 Bft)
16.02.2014 13:08 9,3 C 8,9 C 70 % 1008,9 hPa 0,0 l/m 0 min 0 min 0,0 UV-I 199 W/m 20,6 km/h (4 Bft)
16.02.2014 13:10 9,3 C 8,9 C 70 % 1008,9 hPa 0,0 l/m 0 min 0 min 0,0 UV-I 162 W/m 18,0 km/h (3 Bft)
16.02.2014 13:12 9,3 C 8,3 C 70 % 1008,9 hPa 0,0 l/m 0 min 0 min 0,0 UV-I 185 W/m 36,0 km/h (5 Bft)
16.02.2014 13:14 9,3 C 8,9 C 69 % 1008,8 hPa 0,0 l/m 2 min 0 min 0,0 UV-I 536 W/m 23,2 km/h (4 Bft)
16.02.2014 13:16 9,6 C 8,9 C 69 % 1008,8 hPa 0,0 l/m 2 min 0 min 0,0 UV-I 504 W/m 18,0 km/h (3 Bft)
16.02.2014 13:18 9,8 C 8,9 C 69 % 1008,9 hPa 0,0 l/m 2 min 0 min 0,5 UV-I 510 W/m 23,2 km/h (4 Bft)
16.02.2014 13:20 9,9 C 8,9 C 68 % 1008,9 hPa 0,0 l/m 0 min 0 min 0,0 UV-I 113 W/m 15,4 km/h (3 Bft)
16.02.2014 13:22 9,9 C 8,9 C 68 % 1008,9 hPa 0,0 l/m 0 min 0 min 0,0 UV-I 113 W/m 20,6 km/h (4 Bft)
16.02.2014 13:24 9,9 C 8,9 C 68 % 1008,9 hPa 0,0 l/m 2 min 0 min 0,0 UV-I 388 W/m 41,2 km/h (6 Bft)
16.02.2014 13:26 9,8 C 8,9 C 67 % 1008,9 hPa 0,0 l/m 0 min 0 min 0,0 UV-I 155 W/m 25,7 km/h (4 Bft)
16.02.2014 13:28 9,8 C 8,9 C 67 % 1008,9 hPa 0,0 l/m 2 min 0 min 0,5 UV-I 457 W/m 15,4 km/h (3 Bft)
16.02.2014 13:30 9,8 C 8,9 C 68 % 1009,0 hPa 0,0 l/m 2 min 0 min 0,5 UV-I 454 W/m 12,9 km/h (3 Bft)
16.02.2014 13:32 10,1 C 9,4 C 68 % 1008,9 hPa 0,0 l/m 2 min 0 min 0,5 UV-I 504 W/m 10,3 km/h (2 Bft)
16.02.2014 13:34 10,2 C 9,4 C 68 % 1008,9 hPa 0,0 l/m 2 min 0 min 0,5 UV-I 548 W/m 18,0 km/h (3 Bft)
16.02.2014 13:36 10,3 C 10,0 C 67 % 1008,9 hPa 0,0 l/m 2 min 0 min 0,0 UV-I 533 W/m 20,6 km/h (4 Bft)
16.02.2014 13:38 10,4 C 10,0 C 67 % 1008,8 hPa 0,0 l/m 2 min 0 min 0,5 UV-I 575 W/m 25,7 km/h (4 Bft)
16.02.2014 13:40 10,4 C 10,0 C 66 % 1008,9 hPa 0,0 l/m 2 min 0 min 0,5 UV-I 555 W/m 15,4 km/h (3 Bft)
16.02.2014 13:42 10,6 C 10,0 C 66 % 1008,9 hPa 0,0 l/m 2 min 0 min 0,5 UV-I 541 W/m 23,2 km/h (4 Bft)
16.02.2014 13:44 10,6 C 10,6 C 66 % 1008,9 hPa 0,0 l/m 2 min 0 min 0,5 UV-I 520 W/m 38,6 km/h (5 Bft)
16.02.2014 13:46 10,6 C 10,0 C 65 % 1008,9 hPa 0,0 l/m 2 min 0 min 0,0 UV-I 506 W/m 25,7 km/h (4 Bft)
16.02.2014 13:48 10,6 C 10,0 C 65 % 1008,9 hPa 0,0 l/m 2 min 0 min 0,0 UV-I 513 W/m 18,0 km/h (3 Bft)
16.02.2014 13:50 10,6 C 10,0 C 65 % 1009,0 hPa 0,0 l/m 2 min 0 min 0,0 UV-I 517 W/m 12,9 km/h (3 Bft)
16.02.2014 13:52 10,6 C 10,0 C 64 % 1008,9 hPa 0,0 l/m 2 min 0 min 0,0 UV-I 478 W/m 12,9 km/h (3 Bft)
16.02.2014 13:54 10,7 C 10,0 C 64 % 1008,9 hPa 0,0 l/m 2 min 0 min 0,0 UV-I 490 W/m 20,6 km/h (4 Bft)
16.02.2014 13:56 10,8 C 10,6 C 65 % 1008,9 hPa 0,0 l/m 2 min 0 min 0,0 UV-I 513 W/m 18,0 km/h (3 Bft)
16.02.2014 13:58 10,9 C 10,0 C 64 % 1008,9 hPa 0,0 l/m 2 min 0 min 0,0 UV-I 323 W/m 18,0 km/h (3 Bft)
16.02.2014 14:00 10,8 C 10,0 C 64 % 1008,9 hPa 0,0 l/m 2 min 0 min 0,0 UV-I 243 W/m 28,3 km/h (4 Bft)
16.02.2014 14:02 10,7 C 9,4 C 63 % 1008,9 hPa 0,0 l/m 2 min 0 min 0,0 UV-I 243 W/m 36,0 km/h (5 Bft)
16.02.2014 14:04 10,4 C 9,4 C 63 % 1009,0 hPa 0,0 l/m 2 min 0 min 0,0 UV-I 232 W/m 28,3 km/h (4 Bft)
16.02.2014 14:06 10,3 C 9,4 C 64 % 1008,9 hPa 0,0 l/m 2 min 0 min 0,0 UV-I 434 W/m 18,0 km/h (3 Bft)
16.02.2014 14:08 10,3 C 9,4 C 64 % 1009,0 hPa 0,0 l/m 2 min 0 min 0,0 UV-I 415 W/m 23,2 km/h (4 Bft)
16.02.2014 14:10 10,2 C 9,4 C 63 % 1009,0 hPa 0,0 l/m 0 min 0 min 0,0 UV-I 93 W/m 33,5 km/h (5 Bft)
16.02.2014 14:12 10,1 C 8,9 C 64 % 1008,9 hPa 0,0 l/m 0 min 0 min 0,0 UV-I 93 W/m 23,2 km/h (4 Bft)
16.02.2014 14:14 9,9 C 8,9 C 64 % 1009,0 hPa 0,0 l/m 2 min 0 min 0,0 UV-I 427 W/m 25,7 km/h (4 Bft)
16.02.2014 14:16 9,8 C 8,9 C 63 % 1009,0 hPa 0,0 l/m 2 min 0 min 0,0 UV-I 339 W/m 25,7 km/h (4 Bft)
16.02.2014 14:18 9,9 C 8,9 C 64 % 1009,0 hPa 0,0 l/m 2 min 0 min 0,0 UV-I 355 W/m 20,6 km/h (4 Bft)
16.02.2014 14:20 9,9 C 8,9 C 65 % 1009,0 hPa 0,0 l/m 2 min 0 min 0,0 UV-I 403 W/m 12,9 km/h (3 Bft)
16.02.2014 14:22 10,0 C 8,9 C 65 % 1009,0 hPa 0,0 l/m 2 min 0 min 0,0 UV-I 403 W/m 20,6 km/h (4 Bft)
16.02.2014 14:24 9,8 C 8,3 C 65 % 1009,0 hPa 0,0 l/m 0 min 0 min 0,0 UV-I 60 W/m 15,4 km/h (3 Bft)
16.02.2014 14:26 9,7 C 8,3 C 65 % 1009,0 hPa 0,0 l/m 0 min 0 min 0,0 UV-I 91 W/m 7,7 km/h (2 Bft)
16.02.2014 14:28 9,6 C 8,3 C 65 % 1009,0 hPa 0,0 l/m 0 min 0 min 0,0 UV-I 91 W/m 23,2 km/h (4 Bft)
16.02.2014 14:30 9,4 C 8,3 C 65 % 1009,0 hPa 0,0 l/m 0 min 0 min 0,0 UV-I 91 W/m 25,7 km/h (4 Bft)
16.02.2014 14:32 9,6 C 8,3 C 66 % 1009,0 hPa 0,0 l/m 2 min 0 min 0,0 UV-I 403 W/m 10,3 km/h (2 Bft)
16.02.2014 14:34 9,8 C 8,9 C 66 % 1009,0 hPa 0,0 l/m 2 min 0 min 0,0 UV-I 397 W/m 10,3 km/h (2 Bft)
16.02.2014 14:36 10,0 C 8,9 C 65 % 1009,0 hPa 0,0 l/m 2 min 0 min 0,0 UV-I 399 W/m 10,3 km/h (2 Bft)
16.02.2014 14:38 10,1 C 9,4 C 65 % 1009,0 hPa 0,0 l/m 2 min 0 min 0,0 UV-I 418 W/m 12,9 km/h (3 Bft)
16.02.2014 14:40 10,2 C 9,4 C 65 % 1009,0 hPa 0,0 l/m 2 min 0 min 0,0 UV-I 418 W/m 23,2 km/h (4 Bft)
16.02.2014 14:42 10,2 C 9,4 C 65 % 1009,0 hPa 0,0 l/m 2 min 0 min 0,0 UV-I 431 W/m 15,4 km/h (3 Bft)
16.02.2014 14:44 10,5 C 10,0 C 66 % 1009,0 hPa 0,0 l/m 2 min 0 min 0,0 UV-I 422 W/m 12,9 km/h (3 Bft)
16.02.2014 14:46 10,6 C 10,0 C 65 % 1008,9 hPa 0,0 l/m 2 min 0 min 0,0 UV-I 413 W/m 10,3 km/h (2 Bft)
16.02.2014 14:48 10,6 C 10,0 C 65 % 1009,0 hPa 0,0 l/m 2 min 0 min 0,0 UV-I 448 W/m 18,0 km/h (3 Bft)
16.02.2014 14:50 10,7 C 10,6 C 66 % 1009,0 hPa 0,0 l/m 2 min 0 min 0,0 UV-I 441 W/m 15,4 km/h (3 Bft)
16.02.2014 14:52 10,9 C 10,6 C 65 % 1009,0 hPa 0,0 l/m 2 min 0 min 0,0 UV-I 383 W/m 7,7 km/h (2 Bft)
16.02.2014 14:54 10,8 C 10,0 C 64 % 1009,0 hPa 0,0 l/m 2 min 0 min 0,0 UV-I 343 W/m 28,3 km/h (4 Bft)
16.02.2014 14:56 10,6 C 9,4 C 63 % 1008,9 hPa 0,0 l/m 2 min 0 min 0,0 UV-I 339 W/m 15,4 km/h (3 Bft)
16.02.2014 14:58 10,5 C 9,4 C 62 % 1008,9 hPa 0,0 l/m 2 min 0 min 0,0 UV-I 334 W/m 25,7 km/h (4 Bft)
16.02.2014 15:00 10,4 C 9,4 C 63 % 1008,9 hPa 0,0 l/m 2 min 0 min 0,0 UV-I 330 W/m 18,0 km/h (3 Bft)
16.02.2014 15:02 10,4 C 9,4 C 63 % 1008,9 hPa 0,0 l/m 2 min 0 min 0,0 UV-I 325 W/m 25,7 km/h (4 Bft)
16.02.2014 15:04 10,3 C 8,9 C 65 % 1008,9 hPa 0,0 l/m 2 min 0 min 0,0 UV-I 323 W/m 25,7 km/h (4 Bft)
16.02.2014 15:06 10,3 C 9,4 C 65 % 1009,0 hPa 0,0 l/m 2 min 0 min 0,0 UV-I 318 W/m 23,2 km/h (4 Bft)
16.02.2014 15:08 10,3 C 8,9 C 65 % 1008,9 hPa 0,0 l/m 2 min 0 min 0,0 UV-I 309 W/m 20,6 km/h (4 Bft)
16.02.2014 15:10 10,2 C 8,9 C 65 % 1009,0 hPa 0,0 l/m 0 min 0 min 0,0 UV-I 46 W/m 15,4 km/h (3 Bft)
16.02.2014 15:12 9,9 C 8,3 C 66 % 1009,1 hPa 0,0 l/m 0 min 0 min 0,0 UV-I 69 W/m 18,0 km/h (3 Bft)
16.02.2014 15:14 9,7 C 8,3 C 66 % 1009,0 hPa 0,0 l/m 0 min 0 min 0,0 UV-I 76 W/m 20,6 km/h (4 Bft)
16.02.2014 15:16 9,6 C 8,3 C 67 % 1009,1 hPa 0,0 l/m 0 min 0 min 0,0 UV-I 162 W/m 10,3 km/h (2 Bft)
16.02.2014 15:18 9,6 C 8,3 C 67 % 1009,1 hPa 0,0 l/m 2 min 0 min 0,0 UV-I 311 W/m 12,9 km/h (3 Bft)
16.02.2014 15:20 9,8 C 8,9 C 68 % 1009,1 hPa 0,0 l/m 2 min 0 min 0,0 UV-I 325 W/m 12,9 km/h (3 Bft)
16.02.2014 15:22 9,9 C 8,9 C 67 % 1009,2 hPa 0,0 l/m 2 min 0 min 0,0 UV-I 318 W/m 18,0 km/h (3 Bft)
16.02.2014 15:24 10,1 C 9,4 C 67 % 1009,2 hPa 0,0 l/m 2 min 0 min 0,0 UV-I 329 W/m 7,7 km/h (2 Bft)
16.02.2014 15:26 10,3 C 9,4 C 67 % 1009,1 hPa 0,0 l/m 2 min 0 min 0,0 UV-I 322 W/m 10,3 km/h (2 Bft)
16.02.2014 15:28 10,4 C 9,4 C 65 % 1009,1 hPa 0,0 l/m 2 min 0 min 0,0 UV-I 294 W/m 12,9 km/h (3 Bft)
16.02.2014 15:30 10,4 C 9,4 C 64 % 1009,1 hPa 0,0 l/m 2 min 0 min 0,0 UV-I 281 W/m 15,4 km/h (3 Bft)
16.02.2014 15:32 10,4 C 9,4 C 64 % 1009,1 hPa 0,0 l/m 2 min 0 min 0,0 UV-I 274 W/m 10,3 km/h (2 Bft)
16.02.2014 15:34 10,4 C 8,9 C 63 % 1009,2 hPa 0,0 l/m 2 min 0 min 0,0 UV-I 272 W/m 10,3 km/h (2 Bft)
16.02.2014 15:36 10,4 C 8,9 C 62 % 1009,2 hPa 0,0 l/m 2 min 0 min 0,0 UV-I 267 W/m 18,0 km/h (3 Bft)
16.02.2014 15:38 10,3 C 8,9 C 61 % 1009,2 hPa 0,0 l/m 2 min 0 min 0,0 UV-I 265 W/m 15,4 km/h (3 Bft)
16.02.2014 15:40 10,2 C 8,9 C 61 % 1009,2 hPa 0,0 l/m 2 min 0 min 0,0 UV-I 260 W/m 25,7 km/h (4 Bft)
16.02.2014 15:42 10,2 C 8,9 C 62 % 1009,2 hPa 0,0 l/m 2 min 0 min 0,0 UV-I 250 W/m 18,0 km/h (3 Bft)
16.02.2014 15:44 10,2 C 8,9 C 62 % 1009,2 hPa 0,0 l/m 2 min 0 min 0,0 UV-I 246 W/m 23,2 km/h (4 Bft)
16.02.2014 15:46 10,1 C 8,9 C 62 % 1009,2 hPa 0,0 l/m 2 min 0 min 0,0 UV-I 246 W/m 20,6 km/h (4 Bft)
16.02.2014 15:48 10,1 C 8,9 C 63 % 1009,3 hPa 0,0 l/m 2 min 0 min 0,0 UV-I 237 W/m 15,4 km/h (3 Bft)
16.02.2014 15:50 10,1 C 8,3 C 64 % 1009,2 hPa 0,0 l/m 2 min 0 min 0,0 UV-I 234 W/m 18,0 km/h (3 Bft)
16.02.2014 15:52 10,0 C 8,3 C 64 % 1009,2 hPa 0,0 l/m 2 min 0 min 0,0 UV-I 234 W/m 12,9 km/h (3 Bft)
16.02.2014 15:54 10,0 C 8,3 C 64 % 1009,3 hPa 0,0 l/m 2 min 0 min 0,0 UV-I 225 W/m 18,0 km/h (3 Bft)
16.02.2014 15:56 9,9 C 8,3 C 64 % 1009,2 hPa 0,0 l/m 2 min 0 min 0,0 UV-I 221 W/m 18,0 km/h (3 Bft)
16.02.2014 15:58 9,8 C 8,3 C 65 % 1009,2 hPa 0,0 l/m 2 min 0 min 0,0 UV-I 216 W/m 20,6 km/h (4 Bft)
16.02.2014 16:00 9,8 C 8,3 C 65 % 1009,2 hPa 0,0 l/m 2 min 0 min 0,0 UV-I 211 W/m 15,4 km/h (3 Bft)
16.02.2014 16:02 9,7 C 8,3 C 66 % 1009,2 hPa 0,0 l/m 2 min 0 min 0,0 UV-I 207 W/m 12,9 km/h (3 Bft)
16.02.2014 16:04 9,7 C 8,3 C 67 % 1009,1 hPa 0,0 l/m 2 min 0 min 0,0 UV-I 204 W/m 10,3 km/h (2 Bft)
16.02.2014 16:06 9,7 C 8,3 C 68 % 1009,1 hPa 0,0 l/m 2 min 0 min 0,0 UV-I 195 W/m 18,0 km/h (3 Bft)
16.02.2014 16:08 9,7 C 7,8 C 68 % 1009,1 hPa 0,0 l/m 2 min 0 min 0,0 UV-I 193 W/m 12,9 km/h (3 Bft)
16.02.2014 16:10 9,6 C 7,8 C 69 % 1009,1 hPa 0,0 l/m 2 min 0 min 0,0 UV-I 188 W/m 7,7 km/h (2 Bft)
16.02.2014 16:12 9,6 C 7,8 C 69 % 1009,2 hPa 0,0 l/m 2 min 0 min 0,0 UV-I 183 W/m 7,7 km/h (2 Bft)
16.02.2014 16:14 9,5 C 7,8 C 69 % 1009,2 hPa 0,0 l/m 2 min 0 min 0,0 UV-I 176 W/m 23,2 km/h (4 Bft)
16.02.2014 16:16 9,4 C 7,8 C 69 % 1009,2 hPa 0,0 l/m 2 min 0 min 0,0 UV-I 162 W/m 12,9 km/h (3 Bft)
16.02.2014 16:18 9,3 C 7,8 C 69 % 1009,2 hPa 0,0 l/m 2 min 0 min 0,0 UV-I 158 W/m 15,4 km/h (3 Bft)
16.02.2014 16:20 9,3 C 7,8 C 69 % 1009,1 hPa 0,0 l/m 2 min 0 min 0,0 UV-I 153 W/m 15,4 km/h (3 Bft)
16.02.2014 16:22 9,2 C 7,8 C 69 % 1009,2 hPa 0,0 l/m 2 min 0 min 0,0 UV-I 148 W/m 12,9 km/h (3 Bft)
16.02.2014 16:24 9,2 C 7,8 C 70 % 1009,1 hPa 0,0 l/m 2 min 0 min 0,0 UV-I 144 W/m 10,3 km/h (2 Bft)
16.02.2014 16:26 9,2 C 7,8 C 72 % 1009,2 hPa 0,0 l/m 2 min 0 min 0,0 UV-I 141 W/m 18,0 km/h (3 Bft)
16.02.2014 16:28 9,1 C 7,8 C 70 % 1009,1 hPa 0,0 l/m 0 min 0 min 0,0 UV-I 39 W/m 18,0 km/h (3 Bft)
16.02.2014 16:30 9,1 C 7,2 C 70 % 1009,1 hPa 0,0 l/m 0 min 0 min 0,0 UV-I 39 W/m 12,9 km/h (3 Bft)
16.02.2014 16:32 8,9 C 7,2 C 71 % 1009,2 hPa 0,0 l/m 0 min 0 min 0,0 UV-I 33 W/m 15,4 km/h (3 Bft)
16.02.2014 16:34 8,9 C 7,2 C 71 % 1009,2 hPa 0,0 l/m 0 min 0 min 0,0 UV-I 40 W/m 12,9 km/h (3 Bft)
16.02.2014 16:36 8,8 C 7,2 C 71 % 1009,2 hPa 0,0 l/m 0 min 0 min 0,0 UV-I 32 W/m 10,3 km/h (2 Bft)
16.02.2014 16:38 8,7 C 7,2 C 72 % 1009,2 hPa 0,0 l/m 0 min 0 min 0,0 UV-I 30 W/m 7,7 km/h (2 Bft)
16.02.2014 16:40 8,7 C 7,2 C 72 % 1009,2 hPa 0,0 l/m 0 min 0 min 0,0 UV-I 26 W/m 5,1 km/h (1 Bft)
16.02.2014 16:42 8,6 C 6,7 C 72 % 1009,3 hPa 0,0 l/m 0 min 0 min 0,0 UV-I 26 W/m 2,6 km/h (1 Bft)
16.02.2014 16:44 8,5 C 6,7 C 73 % 1009,2 hPa 0,0 l/m 0 min 0 min 0,0 UV-I 25 W/m 18,0 km/h (3 Bft)
16.02.2014 16:46 8,5 C 6,7 C 73 % 1009,2 hPa 0,0 l/m 0 min 0 min 0,0 UV-I 23 W/m 10,3 km/h (2 Bft)
16.02.2014 16:48 8,4 C 6,7 C 73 % 1009,2 hPa 0,0 l/m 0 min 0 min 0,0 UV-I 21 W/m 7,7 km/h (2 Bft)
16.02.2014 16:50 8,4 C 6,7 C 73 % 1009,2 hPa 0,0 l/m 0 min 0 min 0,0 UV-I 19 W/m 5,1 km/h (1 Bft)
16.02.2014 16:52 8,3 C 6,7 C 73 % 1009,2 hPa 0,0 l/m 0 min 0 min 0,0 UV-I 18 W/m 7,7 km/h (2 Bft)
16.02.2014 16:54 8,3 C 6,7 C 74 % 1009,2 hPa 0,0 l/m 0 min 0 min 0,0 UV-I 19 W/m 10,3 km/h (2 Bft)
16.02.2014 16:56 8,2 C 6,7 C 74 % 1009,2 hPa 0,0 l/m 0 min 0 min 0,0 UV-I 19 W/m 7,7 km/h (2 Bft)
16.02.2014 16:58 8,2 C 6,7 C 74 % 1009,2 hPa 0,0 l/m 0 min 0 min 0,0 UV-I 23 W/m 2,6 km/h (1 Bft)
16.02.2014 17:00 8,2 C 6,7 C 74 % 1009,3 hPa 0,0 l/m 0 min 0 min 0,0 UV-I 28 W/m 10,3 km/h (2 Bft)
16.02.2014 17:02 8,2 C 6,7 C 75 % 1009,3 hPa 0,0 l/m 0 min 0 min 0,0 UV-I 44 W/m 7,7 km/h (2 Bft)
16.02.2014 17:04 8,2 C 6,7 C 75 % 1009,3 hPa 0,0 l/m 0 min 2 min 0,0 UV-I 53 W/m 15,4 km/h (3 Bft)
16.02.2014 17:06 8,2 C 6,7 C 75 % 1009,3 hPa 0,0 l/m 0 min 0 min 0,0 UV-I 35 W/m 5,1 km/h (1 Bft)
16.02.2014 17:08 8,2 C 6,7 C 76 % 1009,3 hPa 0,0 l/m 0 min 0 min 0,0 UV-I 30 W/m 10,3 km/h (2 Bft)
16.02.2014 17:10 8,2 C 6,7 C 76 % 1009,3 hPa 0,0 l/m 0 min 0 min 0,0 UV-I 33 W/m 10,3 km/h (2 Bft)
16.02.2014 17:12 8,2 C 6,7 C 76 % 1009,2 hPa 0,0 l/m 0 min 0 min 0,0 UV-I 33 W/m 7,7 km/h (2 Bft)
16.02.2014 17:14 8,2 C 6,7 C 76 % 1009,3 hPa 0,0 l/m 0 min 0 min 0,0 UV-I 28 W/m 2,6 km/h (1 Bft)
16.02.2014 17:16 8,2 C 6,7 C 76 % 1009,2 hPa 0,0 l/m 0 min 0 min 0,0 UV-I 21 W/m 12,9 km/h (3 Bft)
16.02.2014 17:18 8,2 C 6,7 C 76 % 1009,2 hPa 0,0 l/m 0 min 0 min 0,0 UV-I 19 W/m 7,7 km/h (2 Bft)
16.02.2014 17:20 8,2 C 6,7 C 76 % 1009,2 hPa 0,0 l/m 0 min 0 min 0,0 UV-I 16 W/m 10,3 km/h (2 Bft)
16.02.2014 17:22 8,1 C 6,7 C 76 % 1009,2 hPa 0,0 l/m 0 min 0 min 0,0 UV-I 14 W/m 7,7 km/h (2 Bft)
16.02.2014 17:24 8,1 C 6,1 C 76 % 1009,2 hPa 0,0 l/m 0 min 0 min 0,0 UV-I 14 W/m 5,1 km/h (1 Bft)
16.02.2014 17:26 8,0 C 6,1 C 77 % 1009,3 hPa 0,0 l/m 0 min 0 min 0,0 UV-I 12 W/m 10,3 km/h (2 Bft)
16.02.2014 17:28 7,9 C 6,1 C 77 % 1009,2 hPa 0,0 l/m 0 min 0 min 0,0 UV-I 12 W/m 5,1 km/h (1 Bft)
16.02.2014 17:30 7,9 C 6,1 C 77 % 1009,3 hPa 0,0 l/m 0 min 0 min 0,0 UV-I 12 W/m 2,6 km/h (1 Bft)
16.02.2014 17:32 7,9 C 6,1 C 77 % 1009,3 hPa 0,0 l/m 0 min 0 min 0,0 UV-I 12 W/m 7,7 km/h (2 Bft)
16.02.2014 17:34 7,9 C 6,1 C 77 % 1009,3 hPa 0,0 l/m 0 min 0 min 0,0 UV-I 12 W/m 10,3 km/h (2 Bft)
16.02.2014 17:36 7,9 C 6,1 C 77 % 1009,3 hPa 0,0 l/m 0 min 0 min 0,0 UV-I 12 W/m 5,1 km/h (1 Bft)
16.02.2014 17:38 7,9 C 6,1 C 77 % 1009,3 hPa 0,0 l/m 0 min 0 min 0,0 UV-I 11 W/m 5,1 km/h (1 Bft)
16.02.2014 17:40 7,8 C 6,1 C 77 % 1009,3 hPa 0,0 l/m 0 min 0 min 0,0 UV-I 9 W/m 0,0 km/h (0 Bft)
16.02.2014 17:42 7,8 C 6,1 C 77 % 1009,3 hPa 0,0 l/m 0 min 0 min 0,0 UV-I 9 W/m 5,1 km/h (1 Bft)
16.02.2014 17:44 7,8 C 6,1 C 77 % 1009,4 hPa 0,0 l/m 0 min 0 min 0,0 UV-I 9 W/m 2,6 km/h (1 Bft)
16.02.2014 17:46 7,8 C 6,1 C 77 % 1009,3 hPa 0,0 l/m 0 min 0 min 0,0 UV-I 9 W/m 7,7 km/h (2 Bft)
16.02.2014 17:48 7,7 C 5,6 C 78 % 1009,3 hPa 0,0 l/m 0 min 0 min 0,0 UV-I 7 W/m 2,6 km/h (1 Bft)
16.02.2014 17:50 7,7 C 5,6 C 78 % 1009,3 hPa 0,0 l/m 0 min 0 min 0,0 UV-I 5 W/m 0,0 km/h (0 Bft)
16.02.2014 17:52 7,7 C 5,6 C 78 % 1009,3 hPa 0,0 l/m 0 min 0 min 0,0 UV-I 5 W/m 0,0 km/h (0 Bft)
16.02.2014 17:54 7,7 C 5,6 C 78 % 1009,4 hPa 0,0 l/m 0 min 0 min 0,0 UV-I 5 W/m 5,1 km/h (1 Bft)
16.02.2014 17:56 7,6 C 5,6 C 78 % 1009,4 hPa 0,0 l/m 0 min 0 min 0,0 UV-I 0 W/m 7,7 km/h (2 Bft)
16.02.2014 17:58 7,6 C 5,6 C 78 % 1009,3 hPa 0,0 l/m 0 min 0 min 0,0 UV-I 0 W/m 7,7 km/h (2 Bft)
16.02.2014 18:00 7,6 C 5,6 C 78 % 1009,3 hPa 0,0 l/m 0 min 0 min 0,0 UV-I 0 W/m 7,7 km/h (2 Bft)
16.02.2014 18:02 7,6 C 5,6 C 78 % 1009,3 hPa 0,0 l/m 0 min 0 min 0,0 UV-I 0 W/m 0,0 km/h (0 Bft)
16.02.2014 18:04 7,5 C 5,6 C 78 % 1009,3 hPa 0,0 l/m 0 min 0 min 0,0 UV-I 0 W/m 0,0 km/h (0 Bft)
16.02.2014 18:06 7,4 C 5,6 C 78 % 1009,3 hPa 0,0 l/m 0 min 0 min 0,0 UV-I 0 W/m 7,7 km/h (2 Bft)
16.02.2014 18:08 7,4 C 5,6 C 78 % 1009,4 hPa 0,0 l/m 0 min 0 min 0,0 UV-I 0 W/m 0,0 km/h (0 Bft)
16.02.2014 18:10 7,4 C 5,6 C 78 % 1009,5 hPa 0,0 l/m 0 min 0 min 0,0 UV-I 0 W/m 0,0 km/h (0 Bft)
16.02.2014 18:12 7,4 C 5,6 C 78 % 1009,5 hPa 0,0 l/m 0 min 0 min 0,0 UV-I 0 W/m 2,6 km/h (1 Bft)
16.02.2014 18:14 7,4 C 5,6 C 78 % 1009,5 hPa 0,0 l/m 0 min 0 min 0,0 UV-I 0 W/m 7,7 km/h (2 Bft)
16.02.2014 18:16 7,3 C 5,6 C 78 % 1009,6 hPa 0,0 l/m 0 min 0 min 0,0 UV-I 0 W/m 5,1 km/h (1 Bft)
16.02.2014 18:18 7,3 C 5,6 C 78 % 1009,6 hPa 0,0 l/m 0 min 0 min 0,0 UV-I 0 W/m 2,6 km/h (1 Bft)
16.02.2014 18:20 7,3 C 5,0 C 78 % 1009,6 hPa 0,0 l/m 0 min 0 min 0,0 UV-I 0 W/m 2,6 km/h (1 Bft)
16.02.2014 18:22 7,3 C 5,0 C 78 % 1009,6 hPa 0,0 l/m 0 min 0 min 0,0 UV-I 0 W/m 0,0 km/h (0 Bft)
16.02.2014 18:24 7,2 C 5,0 C 78 % 1009,7 hPa 0,0 l/m 0 min 0 min 0,0 UV-I 0 W/m 0,0 km/h (0 Bft)
16.02.2014 18:26 7,1 C 5,0 C 78 % 1009,8 hPa 0,0 l/m 0 min 0 min 0,0 UV-I 0 W/m 0,0 km/h (0 Bft)
16.02.2014 18:28 7,1 C 5,0 C 78 % 1009,7 hPa 0,0 l/m 0 min 0 min 0,0 UV-I 0 W/m 5,1 km/h (1 Bft)
16.02.2014 18:30 7,1 C 5,0 C 78 % 1009,8 hPa 0,0 l/m 0 min 0 min 0,0 UV-I 0 W/m 7,7 km/h (2 Bft)
16.02.2014 18:32 7,1 C 5,0 C 79 % 1009,7 hPa 0,0 l/m 0 min 0 min 0,0 UV-I 0 W/m 0,0 km/h (0 Bft)
16.02.2014 18:34 7,0 C 5,0 C 79 % 1009,8 hPa 0,0 l/m 0 min 0 min 0,0 UV-I 0 W/m 0,0 km/h (0 Bft)
16.02.2014 18:36 7,0 C 5,0 C 79 % 1009,7 hPa 0,0 l/m 0 min 0 min 0,0 UV-I 0 W/m 0,0 km/h (0 Bft)
16.02.2014 18:38 6,9 C 5,0 C 79 % 1009,8 hPa 0,0 l/m 0 min 0 min 0,0 UV-I 0 W/m 5,1 km/h (1 Bft)
16.02.2014 18:40 6,9 C 5,0 C 79 % 1009,8 hPa 0,0 l/m 0 min 0 min 0,0 UV-I 0 W/m 2,6 km/h (1 Bft)
16.02.2014 18:42 6,9 C 5,0 C 79 % 1009,8 hPa 0,0 l/m 0 min 0 min 0,0 UV-I 0 W/m 0,0 km/h (0 Bft)
16.02.2014 18:44 6,9 C 5,0 C 79 % 1009,8 hPa 0,0 l/m 0 min 0 min 0,0 UV-I 0 W/m 2,6 km/h (1 Bft)
16.02.2014 18:46 6,9 C 5,0 C 79 % 1009,8 hPa 0,0 l/m 0 min 0 min 0,0 UV-I 0 W/m 0,0 km/h (0 Bft)
16.02.2014 18:48 6,8 C 4,4 C 79 % 1009,8 hPa 0,0 l/m 0 min 0 min 0,0 UV-I 0 W/m 0,0 km/h (0 Bft)
16.02.2014 18:50 6,8 C 4,4 C 79 % 1009,8 hPa 0,0 l/m 0 min 0 min 0,0 UV-I 0 W/m 0,0 km/h (0 Bft)
16.02.2014 18:52 6,8 C 4,4 C 79 % 1009,8 hPa 0,0 l/m 0 min 0 min 0,0 UV-I 0 W/m 5,1 km/h (1 Bft)
16.02.2014 18:54 6,7 C 4,4 C 79 % 1009,9 hPa 0,0 l/m 0 min 0 min 0,0 UV-I 0 W/m 5,1 km/h (1 Bft)
16.02.2014 18:56 6,7 C 4,4 C 79 % 1009,9 hPa 0,0 l/m 0 min 0 min 0,0 UV-I 0 W/m 0,0 km/h (0 Bft)
16.02.2014 18:58 6,7 C 4,4 C 79 % 1009,9 hPa 0,0 l/m 0 min 0 min 0,0 UV-I 0 W/m 0,0 km/h (0 Bft)
16.02.2014 19:00 6,7 C 4,4 C 79 % 1010,0 hPa 0,0 l/m 0 min 0 min 0,0 UV-I 0 W/m 0,0 km/h (0 Bft)
16.02.2014 19:02 6,7 C 4,4 C 80 % 1010,1 hPa 0,0 l/m 0 min 0 min 0,0 UV-I 0 W/m 0,0 km/h (0 Bft)
16.02.2014 19:04 6,6 C 4,4 C 79 % 1010,1 hPa 0,0 l/m 0 min 0 min 0,0 UV-I 0 W/m 0,0 km/h (0 Bft)
16.02.2014 19:06 6,6 C 4,4 C 79 % 1010,1 hPa 0,0 l/m 0 min 0 min 0,0 UV-I 0 W/m 0,0 km/h (0 Bft)
16.02.2014 19:08 6,6 C 4,4 C 80 % 1010,2 hPa 0,0 l/m 0 min 0 min 0,0 UV-I 0 W/m 0,0 km/h (0 Bft)
16.02.2014 19:10 6,5 C 4,4 C 80 % 1010,2 hPa 0,0 l/m 0 min 0 min 0,0 UV-I 0 W/m 2,6 km/h (1 Bft)
16.02.2014 19:12 6,5 C 4,4 C 80 % 1010,2 hPa 0,0 l/m 0 min 0 min 0,0 UV-I 0 W/m 5,1 km/h (1 Bft)
16.02.2014 19:14 6,5 C 4,4 C 80 % 1010,3 hPa 0,0 l/m 0 min 0 min 0,0 UV-I 0 W/m 0,0 km/h (0 Bft)
16.02.2014 19:16 6,5 C 4,4 C 80 % 1010,3 hPa 0,0 l/m 0 min 0 min 0,0 UV-I 0 W/m 0,0 km/h (0 Bft)
16.02.2014 19:18 6,4 C 4,4 C 80 % 1010,3 hPa 0,0 l/m 0 min 0 min 0,0 UV-I 0 W/m 0,0 km/h (0 Bft)
16.02.2014 19:20 6,4 C 3,9 C 80 % 1010,3 hPa 0,0 l/m 0 min 0 min 0,0 UV-I 0 W/m 0,0 km/h (0 Bft)
16.02.2014 19:22 6,4 C 3,9 C 81 % 1010,3 hPa 0,0 l/m 0 min 0 min 0,0 UV-I 0 W/m 0,0 km/h (0 Bft)
16.02.2014 19:24 6,4 C 4,4 C 81 % 1010,3 hPa 0,0 l/m 0 min 0 min 0,0 UV-I 0 W/m 12,9 km/h (3 Bft)
16.02.2014 19:26 6,4 C 3,9 C 81 % 1010,3 hPa 0,0 l/m 0 min 0 min 0,0 UV-I 0 W/m 0,0 km/h (0 Bft)
16.02.2014 19:28 6,4 C 4,4 C 81 % 1010,4 hPa 0,0 l/m 0 min 0 min 0,0 UV-I 0 W/m 7,7 km/h (2 Bft)
16.02.2014 19:30 6,3 C 3,9 C 81 % 1010,3 hPa 0,0 l/m 0 min 0 min 0,0 UV-I 0 W/m 2,6 km/h (1 Bft)
16.02.2014 19:32 6,3 C 3,9 C 81 % 1010,4 hPa 0,0 l/m 0 min 0 min 0,0 UV-I 0 W/m 0,0 km/h (0 Bft)
16.02.2014 19:34 6,3 C 3,9 C 81 % 1010,4 hPa 0,0 l/m 0 min 0 min 0,0 UV-I 0 W/m 0,0 km/h (0 Bft)
16.02.2014 19:36 6,2 C 3,9 C 82 % 1010,4 hPa 0,0 l/m 0 min 0 min 0,0 UV-I 0 W/m 0,0 km/h (0 Bft)
16.02.2014 19:38 6,1 C 3,9 C 82 % 1010,4 hPa 0,0 l/m 0 min 0 min 0,0 UV-I 0 W/m 2,6 km/h (1 Bft)
16.02.2014 19:40 6,1 C 3,9 C 82 % 1010,4 hPa 0,0 l/m 0 min 0 min 0,0 UV-I 0 W/m 0,0 km/h (0 Bft)
16.02.2014 19:42 6,1 C 3,9 C 82 % 1010,3 hPa 0,0 l/m 0 min 0 min 0,0 UV-I 0 W/m 2,6 km/h (1 Bft)
16.02.2014 19:44 6,1 C 3,9 C 82 % 1010,4 hPa 0,0 l/m 0 min 0 min 0,0 UV-I 0 W/m 5,1 km/h (1 Bft)
16.02.2014 19:46 6,1 C 3,9 C 83 % 1010,4 hPa 0,0 l/m 0 min 0 min 0,0 UV-I 0 W/m 5,1 km/h (1 Bft)
16.02.2014 19:48 6,0 C 3,9 C 83 % 1010,4 hPa 0,0 l/m 0 min 0 min 0,0 UV-I 0 W/m 0,0 km/h (0 Bft)
16.02.2014 19:50 6,0 C 3,9 C 83 % 1010,4 hPa 0,0 l/m 0 min 0 min 0,0 UV-I 0 W/m 0,0 km/h (0 Bft)
16.02.2014 19:52 5,9 C 3,3 C 83 % 1010,4 hPa 0,0 l/m 0 min 0 min 0,0 UV-I 0 W/m 0,0 km/h (0 Bft)
16.02.2014 19:54 5,9 C 3,3 C 83 % 1010,5 hPa 0,0 l/m 0 min 0 min 0,0 UV-I 0 W/m 5,1 km/h (1 Bft)
16.02.2014 19:56 5,8 C 3,3 C 83 % 1010,4 hPa 0,0 l/m 0 min 0 min 0,0 UV-I 0 W/m 0,0 km/h (0 Bft)
16.02.2014 19:58 5,8 C 3,3 C 84 % 1010,4 hPa 0,0 l/m 0 min 0 min 0,0 UV-I 0 W/m 0,0 km/h (0 Bft)
16.02.2014 20:00 5,7 C 3,3 C 84 % 1010,5 hPa 0,0 l/m 0 min 0 min 0,0 UV-I 0 W/m 0,0 km/h (0 Bft)
16.02.2014 20:02 5,7 C 3,3 C 84 % 1010,5 hPa 0,0 l/m 0 min 0 min 0,0 UV-I 0 W/m 0,0 km/h (0 Bft)
16.02.2014 20:04 5,7 C 3,3 C 84 % 1010,5 hPa 0,0 l/m 0 min 0 min 0,0 UV-I 0 W/m 0,0 km/h (0 Bft)
16.02.2014 20:06 5,7 C 3,3 C 84 % 1010,4 hPa 0,0 l/m 0 min 0 min 0,0 UV-I 0 W/m 0,0 km/h (0 Bft)
16.02.2014 20:08 5,7 C 3,3 C 84 % 1010,4 hPa 0,0 l/m 0 min 0 min 0,0 UV-I 0 W/m 5,1 km/h (1 Bft)
16.02.2014 20:10 5,7 C 3,3 C 85 % 1010,5 hPa 0,0 l/m 0 min 0 min 0,0 UV-I 0 W/m 0,0 km/h (0 Bft)
16.02.2014 20:12 5,7 C 3,3 C 85 % 1010,5 hPa 0,0 l/m 0 min 0 min 0,0 UV-I 0 W/m 0,0 km/h (0 Bft)
16.02.2014 20:14 5,7 C 3,3 C 85 % 1010,5 hPa 0,0 l/m 0 min 0 min 0,0 UV-I 0 W/m 0,0 km/h (0 Bft)
16.02.2014 20:16 5,7 C 3,3 C 85 % 1010,5 hPa 0,0 l/m 0 min 0 min 0,0 UV-I 0 W/m 0,0 km/h (0 Bft)
16.02.2014 20:18 5,7 C 3,3 C 85 % 1010,5 hPa 0,0 l/m 0 min 0 min 0,0 UV-I 0 W/m 0,0 km/h (0 Bft)
16.02.2014 20:20 5,6 C 3,3 C 85 % 1010,5 hPa 0,0 l/m 0 min 0 min 0,0 UV-I 0 W/m 0,0 km/h (0 Bft)
16.02.2014 20:22 5,5 C 2,8 C 85 % 1010,5 hPa 0,0 l/m 0 min 0 min 0,0 UV-I 0 W/m 0,0 km/h (0 Bft)
16.02.2014 20:24 5,4 C 2,8 C 85 % 1010,5 hPa 0,0 l/m 0 min 0 min 0,0 UV-I 0 W/m 0,0 km/h (0 Bft)
16.02.2014 20:26 5,4 C 2,8 C 86 % 1010,5 hPa 0,0 l/m 0 min 0 min 0,0 UV-I 0 W/m 0,0 km/h (0 Bft)
16.02.2014 20:28 5,3 C 2,8 C 86 % 1010,6 hPa 0,0 l/m 0 min 0 min 0,0 UV-I 0 W/m 0,0 km/h (0 Bft)
16.02.2014 20:30 5,3 C 2,8 C 86 % 1010,7 hPa 0,0 l/m 0 min 0 min 0,0 UV-I 0 W/m 0,0 km/h (0 Bft)
16.02.2014 20:32 5,2 C 2,2 C 86 % 1010,7 hPa 0,0 l/m 0 min 0 min 0,0 UV-I 0 W/m 0,0 km/h (0 Bft)
16.02.2014 20:34 5,1 C 2,2 C 86 % 1010,7 hPa 0,0 l/m 0 min 0 min 0,0 UV-I 0 W/m 0,0 km/h (0 Bft)
16.02.2014 20:36 5,1 C 2,2 C 86 % 1010,7 hPa 0,0 l/m 0 min 0 min 0,0 UV-I 0 W/m 5,1 km/h (1 Bft)
16.02.2014 20:38 5,1 C 2,8 C 87 % 1010,6 hPa 0,0 l/m 0 min 0 min 0,0 UV-I 0 W/m 0,0 km/h (0 Bft)
16.02.2014 20:40 5,1 C 2,8 C 87 % 1010,6 hPa 0,0 l/m 0 min 0 min 0,0 UV-I 0 W/m 0,0 km/h (0 Bft)
16.02.2014 20:42 5,1 C 2,8 C 88 % 1010,6 hPa 0,0 l/m 0 min 0 min 0,0 UV-I 0 W/m 0,0 km/h (0 Bft)
16.02.2014 20:44 5,2 C 2,8 C 88 % 1010,7 hPa 0,0 l/m 0 min 0 min 0,0 UV-I 0 W/m 0,0 km/h (0 Bft)
16.02.2014 20:46 5,2 C 2,8 C 88 % 1010,7 hPa 0,0 l/m 0 min 0 min 0,0 UV-I 0 W/m 0,0 km/h (0 Bft)
16.02.2014 20:48 5,2 C 3,3 C 88 % 1010,8 hPa 0,0 l/m 0 min 0 min 0,0 UV-I 0 W/m 0,0 km/h (0 Bft)
16.02.2014 20:50 5,3 C 3,3 C 88 % 1010,7 hPa 0,0 l/m 0 min 0 min 0,0 UV-I 0 W/m 0,0 km/h (0 Bft)
16.02.2014 20:52 5,3 C 3,3 C 88 % 1010,7 hPa 0,0 l/m 0 min 0 min 0,0 UV-I 0 W/m 0,0 km/h (0 Bft)
16.02.2014 20:54 5,3 C 3,3 C 88 % 1010,7 hPa 0,0 l/m 0 min 0 min 0,0 UV-I 0 W/m 0,0 km/h (0 Bft)
16.02.2014 20:56 5,3 C 3,3 C 88 % 1010,6 hPa 0,0 l/m 0 min 0 min 0,0 UV-I 0 W/m 0,0 km/h (0 Bft)
16.02.2014 20:58 5,3 C 3,3 C 88 % 1010,6 hPa 0,0 l/m 0 min 0 min 0,0 UV-I 0 W/m 0,0 km/h (0 Bft)
16.02.2014 21:00 5,3 C 3,3 C 88 % 1010,7 hPa 0,0 l/m 0 min 0 min 0,0 UV-I 0 W/m 0,0 km/h (0 Bft)
16.02.2014 21:02 5,4 C 3,3 C 88 % 1010,7 hPa 0,0 l/m 0 min 0 min 0,0 UV-I 0 W/m 0,0 km/h (0 Bft)
16.02.2014 21:04 5,4 C 3,3 C 88 % 1010,7 hPa 0,0 l/m 0 min 0 min 0,0 UV-I 0 W/m 0,0 km/h (0 Bft)
16.02.2014 21:06 5,4 C 3,3 C 88 % 1010,7 hPa 0,0 l/m 0 min 0 min 0,0 UV-I 0 W/m 0,0 km/h (0 Bft)
16.02.2014 21:08 5,4 C 3,3 C 88 % 1010,6 hPa 0,0 l/m 0 min 0 min 0,0 UV-I 0 W/m 0,0 km/h (0 Bft)
16.02.2014 21:10 5,4 C 3,3 C 88 % 1010,7 hPa 0,0 l/m 0 min 0 min 0,0 UV-I 0 W/m 0,0 km/h (0 Bft)
16.02.2014 21:12 5,4 C 3,3 C 88 % 1010,7 hPa 0,0 l/m 0 min 0 min 0,0 UV-I 0 W/m 0,0 km/h (0 Bft)
16.02.2014 21:14 5,4 C 3,3 C 88 % 1010,8 hPa 0,0 l/m 0 min 0 min 0,0 UV-I 0 W/m 0,0 km/h (0 Bft)
16.02.2014 21:16 5,4 C 3,3 C 88 % 1010,8 hPa 0,0 l/m 0 min 0 min 0,0 UV-I 0 W/m 0,0 km/h (0 Bft)
16.02.2014 21:18 5,4 C 3,3 C 88 % 1010,8 hPa 0,0 l/m 0 min 0 min 0,0 UV-I 0 W/m 0,0 km/h (0 Bft)
16.02.2014 21:20 5,5 C 3,3 C 88 % 1010,8 hPa 0,0 l/m 0 min 0 min 0,0 UV-I 0 W/m 0,0 km/h (0 Bft)
16.02.2014 21:22 5,4 C 3,3 C 88 % 1010,8 hPa 0,0 l/m 0 min 0 min 0,0 UV-I 0 W/m 0,0 km/h (0 Bft)
16.02.2014 21:24 5,4 C 3,3 C 88 % 1010,8 hPa 0,0 l/m 0 min 0 min 0,0 UV-I 0 W/m 0,0 km/h (0 Bft)
16.02.2014 21:26 5,4 C 3,3 C 88 % 1010,8 hPa 0,0 l/m 0 min 0 min 0,0 UV-I 0 W/m 0,0 km/h (0 Bft)
16.02.2014 21:28 5,4 C 3,3 C 88 % 1010,8 hPa 0,0 l/m 0 min 0 min 0,0 UV-I 0 W/m 0,0 km/h (0 Bft)
16.02.2014 21:30 5,4 C 3,3 C 88 % 1010,8 hPa 0,0 l/m 0 min 0 min 0,0 UV-I 0 W/m 0,0 km/h (0 Bft)
16.02.2014 21:32 5,4 C 3,3 C 88 % 1010,8 hPa 0,0 l/m 0 min 0 min 0,0 UV-I 0 W/m 0,0 km/h (0 Bft)
16.02.2014 21:34 5,4 C 3,3 C 88 % 1010,8 hPa 0,0 l/m 0 min 0 min 0,0 UV-I 0 W/m 0,0 km/h (0 Bft)
16.02.2014 21:36 5,4 C 3,3 C 89 % 1010,8 hPa 0,0 l/m 0 min 0 min 0,0 UV-I 0 W/m 2,6 km/h (1 Bft)
16.02.2014 21:38 5,4 C 3,3 C 89 % 1010,9 hPa 0,0 l/m 0 min 0 min 0,0 UV-I 0 W/m 0,0 km/h (0 Bft)
16.02.2014 21:40 5,4 C 3,9 C 89 % 1010,8 hPa 0,0 l/m 0 min 0 min 0,0 UV-I 0 W/m 0,0 km/h (0 Bft)
16.02.2014 21:42 5,5 C 3,9 C 89 % 1010,8 hPa 0,0 l/m 0 min 0 min 0,0 UV-I 0 W/m 0,0 km/h (0 Bft)
16.02.2014 21:44 5,5 C 3,9 C 89 % 1010,8 hPa 0,0 l/m 0 min 0 min 0,0 UV-I 0 W/m 0,0 km/h (0 Bft)
16.02.2014 21:46 5,6 C 3,9 C 89 % 1010,9 hPa 0,0 l/m 0 min 0 min 0,0 UV-I 0 W/m 0,0 km/h (0 Bft)
16.02.2014 21:48 5,6 C 3,9 C 89 % 1010,9 hPa 0,0 l/m 0 min 0 min 0,0 UV-I 0 W/m 0,0 km/h (0 Bft)
16.02.2014 21:50 5,6 C 3,9 C 89 % 1010,8 hPa 0,0 l/m 0 min 0 min 0,0 UV-I 0 W/m 0,0 km/h (0 Bft)
16.02.2014 21:52 5,6 C 3,9 C 89 % 1010,8 hPa 0,0 l/m 0 min 0 min 0,0 UV-I 0 W/m 0,0 km/h (0 Bft)
16.02.2014 21:54 5,6 C 3,3 C 89 % 1010,8 hPa 0,0 l/m 0 min 0 min 0,0 UV-I 0 W/m 0,0 km/h (0 Bft)
16.02.2014 21:56 5,6 C 3,3 C 89 % 1010,9 hPa 0,0 l/m 0 min 0 min 0,0 UV-I 0 W/m 0,0 km/h (0 Bft)
16.02.2014 21:58 5,6 C 3,3 C 88 % 1010,9 hPa 0,0 l/m 0 min 0 min 0,0 UV-I 0 W/m 0,0 km/h (0 Bft)
16.02.2014 22:00 5,6 C 3,3 C 89 % 1010,9 hPa 0,0 l/m 0 min 0 min 0,0 UV-I 0 W/m 0,0 km/h (0 Bft)
16.02.2014 22:02 5,5 C 3,3 C 89 % 1010,9 hPa 0,0 l/m 0 min 0 min 0,0 UV-I 0 W/m 2,6 km/h (1 Bft)
16.02.2014 22:04 5,5 C 3,3 C 89 % 1010,9 hPa 0,0 l/m 0 min 0 min 0,0 UV-I 0 W/m 0,0 km/h (0 Bft)
16.02.2014 22:06 5,5 C 3,3 C 89 % 1010,9 hPa 0,0 l/m 0 min 0 min 0,0 UV-I 0 W/m 0,0 km/h (0 Bft)
16.02.2014 22:08 5,4 C 3,3 C 89 % 1010,9 hPa 0,0 l/m 0 min 0 min 0,0 UV-I 0 W/m 5,1 km/h (1 Bft)
16.02.2014 22:10 5,4 C 3,3 C 89 % 1010,9 hPa 0,0 l/m 0 min 0 min 0,0 UV-I 0 W/m 12,9 km/h (3 Bft)
16.02.2014 22:12 5,4 C 3,3 C 89 % 1010,9 hPa 0,0 l/m 0 min 0 min 0,0 UV-I 0 W/m 12,9 km/h (3 Bft)
16.02.2014 22:14 5,4 C 3,3 C 89 % 1010,9 hPa 0,0 l/m 0 min 0 min 0,0 UV-I 0 W/m 10,3 km/h (2 Bft)
16.02.2014 22:16 5,4 C 3,3 C 89 % 1011,0 hPa 0,0 l/m 0 min 0 min 0,0 UV-I 0 W/m 0,0 km/h (0 Bft)
16.02.2014 22:18 5,4 C 3,3 C 89 % 1011,0 hPa 0,0 l/m 0 min 0 min 0,0 UV-I 0 W/m 2,6 km/h (1 Bft)
16.02.2014 22:20 5,4 C 3,3 C 89 % 1011,0 hPa 0,0 l/m 0 min 0 min 0,0 UV-I 0 W/m 0,0 km/h (0 Bft)
16.02.2014 22:22 5,4 C 3,3 C 89 % 1011,0 hPa 0,0 l/m 0 min 0 min 0,0 UV-I 0 W/m 2,6 km/h (1 Bft)
16.02.2014 22:24 5,4 C 3,3 C 89 % 1011,0 hPa 0,0 l/m 0 min 0 min 0,0 UV-I 0 W/m 0,0 km/h (0 Bft)
16.02.2014 22:26 5,4 C 3,3 C 89 % 1011,1 hPa 0,0 l/m 0 min 0 min 0,0 UV-I 0 W/m 0,0 km/h (0 Bft)
16.02.2014 22:28 5,4 C 3,3 C 89 % 1011,0 hPa 0,0 l/m 0 min 0 min 0,0 UV-I 0 W/m 7,7 km/h (2 Bft)
16.02.2014 22:30 5,4 C 3,3 C 89 % 1011,0 hPa 0,0 l/m 0 min 0 min 0,0 UV-I 0 W/m 0,0 km/h (0 Bft)
16.02.2014 22:32 5,4 C 3,3 C 89 % 1011,0 hPa 0,0 l/m 0 min 0 min 0,0 UV-I 0 W/m 0,0 km/h (0 Bft)
16.02.2014 22:34 5,3 C 3,3 C 89 % 1011,0 hPa 0,0 l/m 0 min 0 min 0,0 UV-I 0 W/m 0,0 km/h (0 Bft)
16.02.2014 22:36 5,3 C 3,3 C 89 % 1011,0 hPa 0,0 l/m 0 min 0 min 0,0 UV-I 0 W/m 0,0 km/h (0 Bft)
16.02.2014 22:38 5,3 C 3,3 C 89 % 1011,1 hPa 0,0 l/m 0 min 0 min 0,0 UV-I 0 W/m 0,0 km/h (0 Bft)
16.02.2014 22:40 5,2 C 3,3 C 89 % 1011,1 hPa 0,0 l/m 0 min 0 min 0,0 UV-I 0 W/m 0,0 km/h (0 Bft)
16.02.2014 22:42 5,2 C 3,3 C 89 % 1011,1 hPa 0,0 l/m 0 min 0 min 0,0 UV-I 0 W/m 0,0 km/h (0 Bft)
16.02.2014 22:44 5,1 C 3,3 C 89 % 1011,1 hPa 0,0 l/m 0 min 0 min 0,0 UV-I 0 W/m 0,0 km/h (0 Bft)
16.02.2014 22:46 5,1 C 2,8 C 89 % 1011,1 hPa 0,0 l/m 0 min 0 min 0,0 UV-I 0 W/m 0,0 km/h (0 Bft)
16.02.2014 22:48 5,0 C 2,8 C 89 % 1011,1 hPa 0,0 l/m 0 min 0 min 0,0 UV-I 0 W/m 0,0 km/h (0 Bft)
16.02.2014 22:50 4,9 C 2,8 C 89 % 1011,1 hPa 0,0 l/m 0 min 0 min 0,0 UV-I 0 W/m 0,0 km/h (0 Bft)
16.02.2014 22:52 4,9 C 2,8 C 90 % 1011,1 hPa 0,0 l/m 0 min 0 min 0,0 UV-I 0 W/m 0,0 km/h (0 Bft)
16.02.2014 22:54 4,8 C 2,8 C 90 % 1011,1 hPa 0,0 l/m 0 min 0 min 0,0 UV-I 0 W/m 0,0 km/h (0 Bft)
16.02.2014 22:56 4,9 C 2,8 C 90 % 1011,1 hPa 0,0 l/m 0 min 0 min 0,0 UV-I 0 W/m 0,0 km/h (0 Bft)
16.02.2014 22:58 4,9 C 3,3 C 90 % 1011,1 hPa 0,0 l/m 0 min 0 min 0,0 UV-I 0 W/m 0,0 km/h (0 Bft)
16.02.2014 23:00 4,9 C 3,3 C 90 % 1011,2 hPa 0,0 l/m 0 min 0 min 0,0 UV-I 0 W/m 0,0 km/h (0 Bft)
16.02.2014 23:02 5,1 C 3,3 C 91 % 1011,2 hPa 0,0 l/m 0 min 0 min 0,0 UV-I 0 W/m 0,0 km/h (0 Bft)
16.02.2014 23:04 5,1 C 3,3 C 90 % 1011,2 hPa 0,0 l/m 0 min 0 min 0,0 UV-I 0 W/m 0,0 km/h (0 Bft)
16.02.2014 23:06 5,1 C 3,3 C 90 % 1011,2 hPa 0,0 l/m 0 min 0 min 0,0 UV-I 0 W/m 0,0 km/h (0 Bft)
16.02.2014 23:08 5,1 C 3,9 C 90 % 1011,1 hPa 0,0 l/m 0 min 0 min 0,0 UV-I 0 W/m 0,0 km/h (0 Bft)
16.02.2014 23:10 5,2 C 3,9 C 90 % 1011,2 hPa 0,0 l/m 0 min 0 min 0,0 UV-I 0 W/m 0,0 km/h (0 Bft)
16.02.2014 23:12 5,2 C 3,9 C 90 % 1011,2 hPa 0,0 l/m 0 min 0 min 0,0 UV-I 0 W/m 0,0 km/h (0 Bft)
16.02.2014 23:14 5,3 C 3,9 C 90 % 1011,2 hPa 0,0 l/m 0 min 0 min 0,0 UV-I 0 W/m 0,0 km/h (0 Bft)
16.02.2014 23:16 5,3 C 3,9 C 90 % 1011,2 hPa 0,0 l/m 0 min 0 min 0,0 UV-I 0 W/m 0,0 km/h (0 Bft)
16.02.2014 23:18 5,3 C 3,9 C 90 % 1011,2 hPa 0,0 l/m 0 min 0 min 0,0 UV-I 0 W/m 0,0 km/h (0 Bft)
16.02.2014 23:20 5,3 C 3,9 C 90 % 1011,2 hPa 0,0 l/m 0 min 0 min 0,0 UV-I 0 W/m 0,0 km/h (0 Bft)
16.02.2014 23:22 5,3 C 3,9 C 89 % 1011,2 hPa 0,0 l/m 0 min 0 min 0,0 UV-I 0 W/m 0,0 km/h (0 Bft)
16.02.2014 23:24 5,3 C 3,9 C 89 % 1011,1 hPa 0,0 l/m 0 min 0 min 0,0 UV-I 0 W/m 0,0 km/h (0 Bft)
16.02.2014 23:26 5,4 C 3,9 C 89 % 1011,2 hPa 0,0 l/m 0 min 0 min 0,0 UV-I 0 W/m 0,0 km/h (0 Bft)
16.02.2014 23:28 5,3 C 3,9 C 89 % 1011,1 hPa 0,0 l/m 0 min 0 min 0,0 UV-I 0 W/m 0,0 km/h (0 Bft)
16.02.2014 23:30 5,3 C 3,9 C 89 % 1011,1 hPa 0,0 l/m 0 min 0 min 0,0 UV-I 0 W/m 0,0 km/h (0 Bft)
16.02.2014 23:32 5,3 C 3,9 C 89 % 1011,1 hPa 0,0 l/m 0 min 0 min 0,0 UV-I 0 W/m 0,0 km/h (0 Bft)
16.02.2014 23:34 5,3 C 3,9 C 89 % 1011,2 hPa 0,0 l/m 0 min 0 min 0,0 UV-I 0 W/m 0,0 km/h (0 Bft)
16.02.2014 23:36 5,3 C 3,9 C 89 % 1011,1 hPa 0,0 l/m 0 min 0 min 0,0 UV-I 0 W/m 7,7 km/h (2 Bft)
16.02.2014 23:38 5,4 C 3,9 C 89 % 1011,1 hPa 0,0 l/m 0 min 0 min 0,0 UV-I 0 W/m 5,1 km/h (1 Bft)
16.02.2014 23:40 5,4 C 3,9 C 89 % 1011,2 hPa 0,0 l/m 0 min 0 min 0,0 UV-I 0 W/m 2,6 km/h (1 Bft)
16.02.2014 23:42 5,4 C 3,9 C 89 % 1011,1 hPa 0,0 l/m 0 min 0 min 0,0 UV-I 0 W/m 0,0 km/h (0 Bft)
16.02.2014 23:44 5,4 C 3,9 C 88 % 1011,1 hPa 0,0 l/m 0 min 0 min 0,0 UV-I 0 W/m 0,0 km/h (0 Bft)
16.02.2014 23:46 5,4 C 3,9 C 88 % 1011,1 hPa 0,0 l/m 0 min 0 min 0,0 UV-I 0 W/m 2,6 km/h (1 Bft)
16.02.2014 23:48 5,4 C 3,3 C 88 % 1011,1 hPa 0,0 l/m 0 min 0 min 0,0 UV-I 0 W/m 0,0 km/h (0 Bft)
16.02.2014 23:50 5,3 C 3,3 C 88 % 1011,1 hPa 0,0 l/m 0 min 0 min 0,0 UV-I 0 W/m 0,0 km/h (0 Bft)
16.02.2014 23:52 5,2 C 3,3 C 88 % 1011,1 hPa 0,0 l/m 0 min 0 min 0,0 UV-I 0 W/m 0,0 km/h (0 Bft)
16.02.2014 23:54 5,2 C 3,3 C 88 % 1011,2 hPa 0,0 l/m 0 min 0 min 0,0 UV-I 0 W/m 0,0 km/h (0 Bft)
16.02.2014 23:56 5,1 C 3,3 C 88 % 1011,2 hPa 0,0 l/m 0 min 0 min 0,0 UV-I 0 W/m 2,6 km/h (1 Bft)
16.02.2014 23:58 5,1 C 2,8 C 88 % 1011,1 hPa 0,0 l/m 0 min 0 min 0,0 UV-I 0 W/m 0,0 km/h (0 Bft)
_ Min-Zeit 22:54 20:32 15:38 00:00 - - - - - 17:40
Minimum _ 4,8 C 2,2 C 61 % 1001,8 hPa - - - - - 0,0 km/h (0 Bft)
_ Max-Zeit 13:58 13:44 23:02 23:00 00:36 08:12 00:10 12:52 13:38 00:08
Maximum _ 10,9 C 10,6 C 91 % 1011,2 hPa 0,2 l/m 2 min 2 min 0,5 UV-I 575 W/m 56,6 km/h
S-SW (7 Bft)
Durchschnitt _ 7,4 C 5,8 C 80 % 1007,5 hPa #0,6 l/m #5:04 h #1:46 h 0,5 UV-I 211 W/m 13,7 km/h (3 Bft)
© 2014 W. Hausmann